Time,TemperatureF,DewpointF,PressureIn,WindDirection,WindDirectionDegrees,WindSpeedMPH,WindSpeedGustMPH,Humidity,HourlyPrecipIn,Conditions,Clouds,dailyrainin,SolarRadiationWatts/m^2,SoftwareType,DateUTC
2013-03-11 00:00:00,28.8,28.1,29.76,NNW,332,8.0,10.0,97,0.00,,,0.00,0,Wunderground v.1.15,2013-03-11 05:00:00,
2013-03-11 00:04:00,28.8,28.1,29.76,WNW,302,8.0,11.0,97,0.00,,,0.00,0,Wunderground v.1.15,2013-03-11 05:04:00,
2013-03-11 00:06:00,28.8,28.1,29.76,NNW,333,12.0,12.0,97,0.00,,,0.00,0,Wunderground v.1.15,2013-03-11 05:06:00,
2013-03-11 00:07:00,28.8,28.1,29.76,NW,323,8.0,12.0,97,0.00,,,0.00,0,Wunderground v.1.15,2013-03-11 05:07:00,
2013-03-11 00:10:00,28.7,28.0,29.76,NNW,336,15.0,15.0,97,0.00,,,0.00,0,Wunderground v.1.15,2013-03-11 05:10:00,
2013-03-11 00:11:00,28.7,28.0,29.76,NW,325,12.0,15.0,97,0.00,,,0.00,0,Wunderground v.1.15,2013-03-11 05:11:00,
2013-03-11 00:12:00,28.7,28.0,29.76,NNE,31,8.0,15.0,97,0.00,,,0.00,0,Wunderground v.1.15,2013-03-11 05:12:00,
2013-03-11 00:15:00,28.6,27.9,29.76,NW,317,18.0,18.0,97,0.00,,,0.00,0,Wunderground v.1.15,2013-03-11 05:15:00,
2013-03-11 00:17:00,28.6,27.9,29.76,NNW,331,6.0,18.0,97,0.00,,,0.00,0,Wunderground v.1.15,2013-03-11 05:17:00,
2013-03-11 00:18:00,28.6,27.9,29.76,NW,325,16.0,18.0,97,0.00,,,0.00,0,Wunderground v.1.15,2013-03-11 05:18:00,
2013-03-11 00:21:00,28.5,27.8,29.76,NNW,342,6.0,14.0,97,0.00,,,0.00,0,Wunderground v.1.15,2013-03-11 05:21:00,
2013-03-11 00:23:00,28.5,27.8,29.76,NW,314,7.0,14.0,97,0.00,,,0.00,0,Wunderground v.1.15,2013-03-11 05:23:00,
2013-03-11 00:26:00,28.4,27.7,29.76,NNW,330,8.0,14.0,97,0.00,,,0.00,0,Wunderground v.1.15,2013-03-11 05:26:00,
2013-03-11 00:27:00,28.4,27.7,29.76,NNW,338,9.0,14.0,97,0.00,,,0.00,0,Wunderground v.1.15,2013-03-11 05:27:00,
2013-03-11 00:28:00,28.4,27.7,29.76,NNW,347,10.0,14.0,97,0.00,,,0.00,0,Wunderground v.1.15,2013-03-11 05:28:00,
2013-03-11 00:33:00,28.3,27.6,29.76,NW,325,8.0,10.0,97,0.00,,,0.00,0,Wunderground v.1.15,2013-03-11 05:33:00,
2013-03-11 00:34:00,28.2,27.5,29.76,NW,325,8.0,10.0,97,0.00,,,0.00,0,Wunderground v.1.15,2013-03-11 05:34:00,
2013-03-11 00:37:00,28.2,27.5,29.76,NW,325,14.0,14.0,97,0.00,,,0.00,0,Wunderground v.1.15,2013-03-11 05:37:00,
2013-03-11 00:42:00,28.2,27.5,29.76,NNW,336,8.0,9.0,97,0.00,,,0.00,0,Wunderground v.1.15,2013-03-11 05:42:00,
2013-03-11 00:43:00,28.2,27.5,29.76,NW,315,8.0,9.0,97,0.00,,,0.00,0,Wunderground v.1.15,2013-03-11 05:43:00,
2013-03-11 00:48:00,28.1,27.4,29.76,NNW,344,15.0,17.0,97,0.00,,,0.00,0,Wunderground v.1.15,2013-03-11 05:48:00,
2013-03-11 00:49:00,28.1,27.4,29.76,NW,318,8.0,17.0,97,0.00,,,0.00,0,Wunderground v.1.15,2013-03-11 05:49:00,
2013-03-11 00:52:00,28.1,27.4,29.76,NNW,333,5.0,10.0,97,0.00,,,0.00,0,Wunderground v.1.15,2013-03-11 05:52:00,
2013-03-11 00:54:00,28.1,27.4,29.76,North,349,7.0,10.0,97,0.00,,,0.00,0,Wunderground v.1.15,2013-03-11 05:54:00,
2013-03-11 00:55:00,28.1,27.4,29.76,NW,326,7.0,10.0,97,0.00,,,0.00,0,Wunderground v.1.15,2013-03-11 05:55:00,
2013-03-11 00:57:00,28.1,27.4,29.76,North,351,6.0,10.0,97,0.00,,,0.00,0,Wunderground v.1.15,2013-03-11 05:57:00,
2013-03-11 00:59:00,28.1,27.4,29.76,NW,320,7.0,10.0,97,0.00,,,0.00,0,Wunderground v.1.15,2013-03-11 05:59:00,
2013-03-11 01:03:00,28.1,27.4,29.76,NNW,348,10.0,10.0,97,0.00,,,0.00,0,Wunderground v.1.15,2013-03-11 06:03:00,
2013-03-11 01:04:00,28.1,27.4,29.76,NNW,329,7.0,10.0,97,0.00,,,0.00,0,Wunderground v.1.15,2013-03-11 06:04:00,
2013-03-11 01:07:00,28.1,27.4,29.76,NW,304,6.0,10.0,97,0.00,,,0.00,0,Wunderground v.1.15,2013-03-11 06:07:00,
2013-03-11 01:08:00,28.1,27.4,29.76,NNW,337,7.0,10.0,97,0.00,,,0.00,0,Wunderground v.1.15,2013-03-11 06:08:00,
2013-03-11 01:10:00,28.1,27.4,29.76,NW,304,9.0,9.0,97,0.00,,,0.00,0,Wunderground v.1.15,2013-03-11 06:10:00,
2013-03-11 01:11:00,28.1,27.4,29.76,NW,325,19.0,19.0,97,0.00,,,0.00,0,Wunderground v.1.15,2013-03-11 06:11:00,
2013-03-11 01:13:00,28.1,27.4,29.76,NNW,329,10.0,19.0,97,0.00,,,0.00,0,Wunderground v.1.15,2013-03-11 06:13:00,
2013-03-11 01:17:00,28.1,27.4,29.76,NNW,336,6.0,19.0,97,0.00,,,0.00,0,Wunderground v.1.15,2013-03-11 06:17:00,
2013-03-11 01:18:00,28.1,27.4,29.76,North,355,11.0,19.0,97,0.00,,,0.00,0,Wunderground v.1.15,2013-03-11 06:18:00,
2013-03-11 01:20:00,28.1,27.4,29.76,NNW,330,15.0,15.0,97,0.00,,,0.00,0,Wunderground v.1.15,2013-03-11 06:20:00,
2013-03-11 01:23:00,28.1,27.4,29.76,NNW,340,8.0,15.0,97,0.00,,,0.00,0,Wunderground v.1.15,2013-03-11 06:23:00,
2013-03-11 01:24:00,28.1,27.4,29.76,NNW,332,9.0,15.0,97,0.00,,,0.00,0,Wunderground v.1.15,2013-03-11 06:24:00,
2013-03-11 01:27:00,28.1,27.1,29.76,NW,313,10.0,15.0,96,0.00,,,0.00,0,Wunderground v.1.15,2013-03-11 06:27:00,
2013-03-11 01:28:00,28.1,27.1,29.76,North,351,6.0,15.0,96,0.00,,,0.00,0,Wunderground v.1.15,2013-03-11 06:28:00,
2013-03-11 01:30:00,28.1,27.1,29.76,NNW,331,10.0,10.0,96,0.00,,,0.00,0,Wunderground v.1.15,2013-03-11 06:30:00,
2013-03-11 01:32:00,28.1,27.1,29.76,WNW,300,5.0,10.0,96,0.00,,,0.00,0,Wunderground v.1.15,2013-03-11 06:32:00,
2013-03-11 01:33:00,28.1,27.1,29.76,NW,322,7.0,10.0,96,0.00,,,0.00,0,Wunderground v.1.15,2013-03-11 06:33:00,
2013-03-11 01:36:00,28.0,27.0,29.76,NW,323,12.0,12.0,96,0.00,,,0.00,0,Wunderground v.1.15,2013-03-11 06:36:00,
2013-03-11 01:38:00,28.0,27.0,29.76,NW,321,9.0,12.0,96,0.00,,,0.00,0,Wunderground v.1.15,2013-03-11 06:38:00,
2013-03-11 01:42:00,28.0,27.0,29.76,NW,312,11.0,11.0,96,0.00,,,0.00,0,Wunderground v.1.15,2013-03-11 06:42:00,
2013-03-11 01:43:00,28.0,27.0,29.76,NNW,348,8.0,11.0,96,0.00,,,0.00,0,Wunderground v.1.15,2013-03-11 06:43:00,
2013-03-11 01:44:00,28.0,27.0,29.76,NW,315,8.0,11.0,96,0.00,,,0.00,0,Wunderground v.1.15,2013-03-11 06:44:00,
2013-03-11 01:45:00,28.0,27.0,29.76,NNW,331,14.0,14.0,96,0.00,,,0.00,0,Wunderground v.1.15,2013-03-11 06:45:00,
2013-03-11 01:50:00,27.9,26.9,29.76,NW,321,14.0,14.0,96,0.00,,,0.00,0,Wunderground v.1.15,2013-03-11 06:50:00,
2013-03-11 01:51:00,27.9,26.9,29.76,North,355,12.0,14.0,96,0.00,,,0.00,0,Wunderground v.1.15,2013-03-11 06:51:00,
2013-03-11 01:52:00,27.9,26.9,29.76,NW,309,10.0,14.0,96,0.00,,,0.00,0,Wunderground v.1.15,2013-03-11 06:52:00,
2013-03-11 01:57:00,27.9,26.9,29.76,NW,319,9.0,14.0,96,0.00,,,0.00,0,Wunderground v.1.15,2013-03-11 06:57:00,
2013-03-11 01:58:00,27.9,26.9,29.76,NW,318,14.0,14.0,96,0.00,,,0.00,0,Wunderground v.1.15,2013-03-11 06:58:00,
2013-03-11 01:59:00,27.9,26.9,29.76,NW,323,13.0,14.0,96,0.00,,,0.00,0,Wunderground v.1.15,2013-03-11 06:59:00,
2013-03-11 02:03:00,27.9,26.9,29.76,North,360,9.0,16.0,96,0.00,,,0.00,0,Wunderground v.1.15,2013-03-11 07:03:00,
2013-03-11 02:05:00,27.9,26.9,29.76,NNW,327,12.0,16.0,96,0.00,,,0.00,0,Wunderground v.1.15,2013-03-11 07:05:00,
2013-03-11 02:08:00,27.8,26.8,29.76,NNW,330,11.0,16.0,96,0.00,,,0.00,0,Wunderground v.1.15,2013-03-11 07:08:00,
2013-03-11 02:09:00,27.8,26.8,29.76,NW,324,8.0,17.0,96,0.00,,,0.00,0,Wunderground v.1.15,2013-03-11 07:09:00,
2013-03-11 02:12:00,27.8,26.8,29.76,NW,323,11.0,12.0,96,0.00,,,0.00,0,Wunderground v.1.15,2013-03-11 07:12:00,
2013-03-11 02:13:00,27.8,26.8,29.76,NW,308,9.0,13.0,96,0.00,,,0.00,0,Wunderground v.1.15,2013-03-11 07:13:00,
2013-03-11 02:14:00,27.8,26.8,29.76,NW,323,12.0,13.0,96,0.00,,,0.00,0,Wunderground v.1.15,2013-03-11 07:14:00,
2013-03-11 02:16:00,27.7,26.7,29.76,NW,318,11.0,17.0,96,0.00,,,0.00,0,Wunderground v.1.15,2013-03-11 07:16:00,
2013-03-11 02:18:00,27.7,26.7,29.76,NNW,333,8.0,17.0,96,0.00,,,0.00,0,Wunderground v.1.15,2013-03-11 07:18:00,
2013-03-11 02:20:00,27.7,26.7,29.76,NW,325,13.0,17.0,96,0.00,,,0.00,0,Wunderground v.1.15,2013-03-11 07:20:00,
2013-03-11 02:21:00,27.7,26.7,29.76,NW,317,9.0,18.0,96,0.00,,,0.00,0,Wunderground v.1.15,2013-03-11 07:21:00,
2013-03-11 02:24:00,27.7,26.7,29.76,NNW,341,6.0,18.0,96,0.00,,,0.00,0,Wunderground v.1.15,2013-03-11 07:24:00,
2013-03-11 02:26:00,27.6,26.6,29.76,NW,323,14.0,18.0,96,0.00,,,0.00,0,Wunderground v.1.15,2013-03-11 07:26:00,
2013-03-11 02:27:00,27.6,26.6,29.76,NNW,331,8.0,18.0,96,0.00,,,0.00,0,Wunderground v.1.15,2013-03-11 07:27:00,
2013-03-11 02:30:00,27.6,26.6,29.76,NW,309,8.0,10.0,96,0.00,,,0.00,0,Wunderground v.1.15,2013-03-11 07:30:00,
2013-03-11 02:32:00,27.6,26.6,29.76,NW,320,13.0,15.0,96,0.00,,,0.00,0,Wunderground v.1.15,2013-03-11 07:32:00,
2013-03-11 02:33:00,27.6,26.6,29.76,NNW,328,6.0,15.0,96,0.00,,,0.00,0,Wunderground v.1.15,2013-03-11 07:33:00,
2013-03-11 02:37:00,27.5,26.5,29.76,NW,325,11.0,18.0,96,0.00,,,0.00,0,Wunderground v.1.15,2013-03-11 07:37:00,
2013-03-11 02:39:00,27.5,26.5,29.76,NW,318,12.0,18.0,96,0.00,,,0.00,0,Wunderground v.1.15,2013-03-11 07:39:00,
2013-03-11 02:43:00,27.5,26.5,29.76,NNW,333,13.0,15.0,96,0.00,,,0.00,0,Wunderground v.1.15,2013-03-11 07:43:00,
2013-03-11 02:44:00,27.4,26.4,29.76,NW,315,11.0,15.0,96,0.00,,,0.00,0,Wunderground v.1.15,2013-03-11 07:44:00,
2013-03-11 02:45:00,27.4,26.4,29.76,NW,322,10.0,15.0,96,0.00,,,0.00,0,Wunderground v.1.15,2013-03-11 07:45:00,
2013-03-11 02:47:00,27.4,26.4,29.76,NNW,339,8.0,15.0,96,0.00,,,0.00,0,Wunderground v.1.15,2013-03-11 07:47:00,
2013-03-11 02:48:00,27.4,26.4,29.76,NNW,327,10.0,15.0,96,0.00,,,0.00,0,Wunderground v.1.15,2013-03-11 07:48:00,
2013-03-11 02:50:00,27.4,26.4,29.76,NNW,331,8.0,11.0,96,0.00,,,0.00,0,Wunderground v.1.15,2013-03-11 07:50:00,
2013-03-11 02:52:00,27.3,26.3,29.76,NW,326,11.0,16.0,96,0.00,,,0.00,0,Wunderground v.1.15,2013-03-11 07:52:00,
2013-03-11 02:53:00,27.3,26.3,29.76,NW,321,12.0,16.0,96,0.00,,,0.00,0,Wunderground v.1.15,2013-03-11 07:53:00,
2013-03-11 02:57:00,27.2,26.2,29.75,NNW,331,10.0,16.0,96,0.00,,,0.00,0,Wunderground v.1.15,2013-03-11 07:57:00,
2013-03-11 02:58:00,27.2,26.2,29.75,NW,318,16.0,16.0,96,0.00,,,0.00,0,Wunderground v.1.15,2013-03-11 07:58:00,
2013-03-11 02:59:00,27.2,26.2,29.75,NW,318,8.0,20.0,96,0.00,,,0.00,0,Wunderground v.1.15,2013-03-11 07:59:00,
2013-03-11 03:03:00,27.1,26.1,29.75,NW,319,11.0,18.0,96,0.00,,,0.00,0,Wunderground v.1.15,2013-03-11 08:03:00,
2013-03-11 03:05:00,27.0,26.0,29.75,NW,321,13.0,19.0,96,0.00,,,0.00,0,Wunderground v.1.15,2013-03-11 08:05:00,
2013-03-11 03:08:00,27.0,26.0,29.75,NW,315,12.0,19.0,96,0.00,,,0.00,0,Wunderground v.1.15,2013-03-11 08:08:00,
2013-03-11 03:10:00,26.9,25.9,29.75,NW,317,12.0,14.0,96,0.00,,,0.00,0,Wunderground v.1.15,2013-03-11 08:10:00,
2013-03-11 03:11:00,26.9,25.9,29.76,NNW,327,10.0,14.0,96,0.00,,,0.00,0,Wunderground v.1.15,2013-03-11 08:11:00,
2013-03-11 03:14:00,26.9,25.9,29.75,NW,317,14.0,16.0,96,0.00,,,0.00,0,Wunderground v.1.15,2013-03-11 08:14:00,
2013-03-11 03:16:00,26.8,25.8,29.76,NW,325,16.0,16.0,96,0.00,,,0.00,0,Wunderground v.1.15,2013-03-11 08:16:00,
2013-03-11 03:17:00,26.8,25.8,29.75,NW,319,12.0,22.0,96,0.00,,,0.00,0,Wunderground v.1.15,2013-03-11 08:17:00,
2013-03-11 03:19:00,26.7,25.7,29.75,NNW,327,11.0,22.0,96,0.00,,,0.00,0,Wunderground v.1.15,2013-03-11 08:19:00,
2013-03-11 03:20:00,26.7,25.7,29.75,NW,324,10.0,14.0,96,0.00,,,0.00,0,Wunderground v.1.15,2013-03-11 08:20:00,
2013-03-11 03:22:00,26.7,25.7,29.75,NW,321,18.0,18.0,96,0.00,,,0.00,0,Wunderground v.1.15,2013-03-11 08:22:00,
2013-03-11 03:24:00,26.7,25.7,29.75,NNW,331,14.0,18.0,96,0.00,,,0.00,0,Wunderground v.1.15,2013-03-11 08:24:00,
2013-03-11 03:26:00,26.6,25.6,29.75,NNW,333,14.0,18.0,96,0.00,,,0.00,0,Wunderground v.1.15,2013-03-11 08:26:00,
2013-03-11 03:27:00,26.6,25.6,29.75,NW,322,10.0,18.0,96,0.00,,,0.00,0,Wunderground v.1.15,2013-03-11 08:27:00,
2013-03-11 03:29:00,26.6,25.6,29.75,NW,321,14.0,18.0,96,0.00,,,0.00,0,Wunderground v.1.15,2013-03-11 08:29:00,
2013-03-11 03:32:00,26.5,25.5,29.75,NW,324,11.0,17.0,96,0.00,,,0.00,0,Wunderground v.1.15,2013-03-11 08:32:00,
2013-03-11 03:33:00,26.6,25.6,29.75,NNW,332,8.0,17.0,96,0.00,,,0.00,0,Wunderground v.1.15,2013-03-11 08:33:00,
2013-03-11 03:35:00,26.5,25.5,29.75,NNW,331,11.0,17.0,96,0.00,,,0.00,0,Wunderground v.1.15,2013-03-11 08:35:00,
2013-03-11 03:37:00,26.5,25.5,29.75,NW,315,17.0,18.0,96,0.00,,,0.00,0,Wunderground v.1.15,2013-03-11 08:37:00,
2013-03-11 03:38:00,26.5,25.5,29.75,NW,324,16.0,18.0,96,0.00,,,0.00,0,Wunderground v.1.15,2013-03-11 08:38:00,
2013-03-11 03:39:00,26.5,25.5,29.75,NW,319,16.0,18.0,96,0.00,,,0.00,0,Wunderground v.1.15,2013-03-11 08:39:00,
2013-03-11 03:40:00,26.5,25.5,29.75,NNW,327,15.0,18.0,96,0.00,,,0.00,0,Wunderground v.1.15,2013-03-11 08:40:00,
2013-03-11 03:43:00,26.4,25.4,29.75,NNW,330,13.0,19.0,96,0.00,,,0.00,0,Wunderground v.1.15,2013-03-11 08:43:00,
2013-03-11 03:44:00,26.4,25.4,29.75,NW,313,13.0,19.0,96,0.00,,,0.00,0,Wunderground v.1.15,2013-03-11 08:44:00,
2013-03-11 03:45:00,26.3,25.3,29.75,NW,309,17.0,19.0,96,0.00,,,0.00,0,Wunderground v.1.15,2013-03-11 08:45:00,
2013-03-11 03:49:00,26.3,25.3,29.75,NW,323,12.0,19.0,96,0.00,,,0.00,0,Wunderground v.1.15,2013-03-11 08:49:00,
2013-03-11 03:52:00,26.3,25.3,29.75,NW,322,13.0,16.0,96,0.00,,,0.00,0,Wunderground v.1.15,2013-03-11 08:52:00,
2013-03-11 03:54:00,26.3,25.3,29.75,NW,321,15.0,16.0,96,0.00,,,0.00,0,Wunderground v.1.15,2013-03-11 08:54:00,
2013-03-11 03:55:00,26.3,25.3,29.75,NW,316,15.0,19.0,96,0.00,,,0.00,0,Wunderground v.1.15,2013-03-11 08:55:00,
2013-03-11 03:58:00,26.2,25.2,29.75,NNW,333,14.0,19.0,96,0.00,,,0.00,0,Wunderground v.1.15,2013-03-11 08:58:00,
2013-03-11 03:59:00,26.2,25.2,29.75,NW,323,10.0,19.0,96,0.00,,,0.00,0,Wunderground v.1.15,2013-03-11 08:59:00,
2013-03-11 04:00:00,26.2,25.2,29.75,NW,319,11.0,14.0,96,0.00,,,0.00,0,Wunderground v.1.15,2013-03-11 09:00:00,
2013-03-11 04:04:00,26.1,25.1,29.74,NW,320,14.0,21.0,96,0.00,,,0.00,0,Wunderground v.1.15,2013-03-11 09:04:00,
2013-03-11 04:05:00,26.1,25.1,29.74,NW,324,16.0,21.0,96,0.00,,,0.00,0,Wunderground v.1.15,2013-03-11 09:05:00,
2013-03-11 04:09:00,26.0,25.0,29.74,WNW,293,9.0,21.0,96,0.00,,,0.00,0,Wunderground v.1.15,2013-03-11 09:09:00,
2013-03-11 04:10:00,26.0,25.0,29.74,NW,319,19.0,19.0,96,0.00,,,0.00,0,Wunderground v.1.15,2013-03-11 09:10:00,
2013-03-11 04:11:00,25.9,24.9,29.74,NNW,327,7.0,19.0,96,0.00,,,0.00,0,Wunderground v.1.15,2013-03-11 09:11:00,
2013-03-11 04:14:00,25.9,24.9,29.74,NNW,343,7.0,19.0,96,0.00,,,0.00,0,Wunderground v.1.15,2013-03-11 09:14:00,
2013-03-11 04:15:00,25.9,24.9,29.74,NW,319,14.0,19.0,96,0.00,,,0.00,0,Wunderground v.1.15,2013-03-11 09:15:00,
2013-03-11 04:17:00,25.9,24.9,29.74,NNW,342,13.0,19.0,96,0.00,,,0.00,0,Wunderground v.1.15,2013-03-11 09:17:00,
2013-03-11 04:18:00,25.9,24.9,29.74,NW,325,16.0,19.0,96,0.00,,,0.00,0,Wunderground v.1.15,2013-03-11 09:18:00,
2013-03-11 04:20:00,25.8,24.8,29.74,NW,324,13.0,13.0,96,0.00,,,0.00,0,Wunderground v.1.15,2013-03-11 09:20:00,
2013-03-11 04:23:00,25.9,24.9,29.74,NNW,339,6.0,13.0,96,0.00,,,0.00,0,Wunderground v.1.15,2013-03-11 09:23:00,
2013-03-11 04:26:00,25.8,24.8,29.74,NW,322,13.0,14.0,96,0.00,,,0.00,0,Wunderground v.1.15,2013-03-11 09:26:00,
2013-03-11 04:27:00,25.9,24.9,29.74,NW,325,15.0,15.0,96,0.00,,,0.00,0,Wunderground v.1.15,2013-03-11 09:27:00,
2013-03-11 04:30:00,25.9,24.9,29.74,NW,321,15.0,15.0,96,0.00,,,0.00,0,Wunderground v.1.15,2013-03-11 09:30:00,
2013-03-11 04:32:00,25.8,24.8,29.74,NNW,338,10.0,15.0,96,0.00,,,0.00,0,Wunderground v.1.15,2013-03-11 09:32:00,
2013-03-11 04:33:00,25.8,24.8,29.74,NW,321,10.0,15.0,96,0.00,,,0.00,0,Wunderground v.1.15,2013-03-11 09:33:00,
2013-03-11 04:34:00,25.8,24.8,29.74,NNW,327,7.0,15.0,96,0.00,,,0.00,0,Wunderground v.1.15,2013-03-11 09:34:00,
2013-03-11 04:37:00,25.8,24.8,29.74,NW,325,9.0,15.0,96,0.00,,,0.00,0,Wunderground v.1.15,2013-03-11 09:37:00,
2013-03-11 04:38:00,25.8,24.8,29.74,North,355,5.0,15.0,96,0.00,,,0.00,0,Wunderground v.1.15,2013-03-11 09:38:00,
2013-03-11 04:41:00,25.8,24.8,29.74,NNW,337,8.0,9.0,96,0.00,,,0.00,0,Wunderground v.1.15,2013-03-11 09:41:00,
2013-03-11 04:43:00,25.8,24.8,29.74,NW,315,8.0,11.0,96,0.00,,,0.00,0,Wunderground v.1.15,2013-03-11 09:43:00,
2013-03-11 04:46:00,25.8,24.8,29.74,NW,320,5.0,15.0,96,0.00,,,0.00,0,Wunderground v.1.15,2013-03-11 09:46:00,
2013-03-11 04:48:00,25.8,24.8,29.74,NW,324,11.0,17.0,96,0.00,,,0.00,0,Wunderground v.1.15,2013-03-11 09:48:00,
2013-03-11 04:50:00,25.8,24.8,29.74,NNW,328,10.0,10.0,96,0.00,,,0.00,0,Wunderground v.1.15,2013-03-11 09:50:00,
2013-03-11 04:53:00,25.8,24.8,29.74,NW,325,11.0,13.0,96,0.00,,,0.00,0,Wunderground v.1.15,2013-03-11 09:53:00,
2013-03-11 04:56:00,25.8,24.8,29.74,NNW,327,11.0,14.0,96,0.00,,,0.00,0,Wunderground v.1.15,2013-03-11 09:56:00,
2013-03-11 04:57:00,25.8,24.8,29.74,NNW,327,11.0,14.0,96,0.00,,,0.00,0,Wunderground v.1.15,2013-03-11 09:57:00,
2013-03-11 04:58:00,25.9,24.9,29.74,NW,322,13.0,15.0,96,0.00,,,0.00,0,Wunderground v.1.15,2013-03-11 09:58:00,
2013-03-11 05:02:00,25.9,24.9,29.74,NW,317,13.0,16.0,96,0.00,,,0.00,0,Wunderground v.1.15,2013-03-11 10:02:00,
2013-03-11 05:03:00,25.8,24.8,29.74,NW,326,14.0,16.0,96,0.00,,,0.00,0,Wunderground v.1.15,2013-03-11 10:03:00,
2013-03-11 05:08:00,25.8,24.8,29.74,NW,321,14.0,16.0,96,0.00,,,0.00,0,Wunderground v.1.15,2013-03-11 10:08:00,
2013-03-11 05:09:00,25.8,24.8,29.74,NW,321,11.0,16.0,96,0.00,,,0.00,0,Wunderground v.1.15,2013-03-11 10:09:00,
2013-03-11 05:14:00,25.7,24.7,29.74,NW,319,15.0,17.0,96,0.00,,,0.00,0,Wunderground v.1.15,2013-03-11 10:14:00,
2013-03-11 05:15:00,25.7,24.7,29.74,NW,315,12.0,17.0,96,0.00,,,0.00,0,Wunderground v.1.15,2013-03-11 10:15:00,
2013-03-11 05:16:00,25.7,24.7,29.74,NW,326,13.0,17.0,96,0.00,,,0.00,0,Wunderground v.1.15,2013-03-11 10:16:00,
2013-03-11 05:19:00,25.7,24.7,29.74,NW,311,16.0,18.0,96,0.00,,,0.00,0,Wunderground v.1.15,2013-03-11 10:19:00,
2013-03-11 05:21:00,25.6,24.6,29.74,NW,321,15.0,16.0,96,0.00,,,0.00,0,Wunderground v.1.15,2013-03-11 10:21:00,
2013-03-11 05:24:00,25.6,24.6,29.75,NW,319,9.0,18.0,96,0.00,,,0.00,0,Wunderground v.1.15,2013-03-11 10:24:00,
2013-03-11 05:30:00,25.6,24.6,29.75,NW,318,13.0,18.0,96,0.00,,,0.00,0,Wunderground v.1.15,2013-03-11 10:30:00,
2013-03-11 05:35:00,25.6,24.6,29.75,NW,325,15.0,18.0,96,0.00,,,0.00,0,Wunderground v.1.15,2013-03-11 10:35:00,
2013-03-11 05:36:00,25.5,24.5,29.75,NW,318,17.0,19.0,96,0.00,,,0.00,0,Wunderground v.1.15,2013-03-11 10:36:00,
2013-03-11 05:40:00,25.5,24.5,29.75,NW,315,14.0,14.0,96,0.00,,,0.00,0,Wunderground v.1.15,2013-03-11 10:40:00,
2013-03-11 05:42:00,25.5,24.5,29.75,NW,324,6.0,17.0,96,0.00,,,0.00,0,Wunderground v.1.15,2013-03-11 10:42:00,
2013-03-11 05:46:00,25.4,24.4,29.75,NNW,340,8.0,22.0,96,0.00,,,0.00,0,Wunderground v.1.15,2013-03-11 10:46:00,
2013-03-11 05:47:00,25.5,24.5,29.75,NW,323,12.0,22.0,96,0.00,,,0.00,0,Wunderground v.1.15,2013-03-11 10:47:00,
2013-03-11 05:49:00,25.5,24.5,29.75,NW,317,12.0,22.0,96,0.00,,,0.00,0,Wunderground v.1.15,2013-03-11 10:49:00,
2013-03-11 05:52:00,25.5,24.5,29.76,NW,317,13.0,17.0,96,0.00,,,0.00,0,Wunderground v.1.15,2013-03-11 10:52:00,
2013-03-11 05:53:00,25.5,24.5,29.76,NW,323,14.0,17.0,96,0.00,,,0.00,0,Wunderground v.1.15,2013-03-11 10:53:00,
2013-03-11 05:56:00,25.5,24.5,29.76,NNW,327,13.0,17.0,96,0.00,,,0.00,0,Wunderground v.1.15,2013-03-11 10:56:00,
2013-03-11 05:57:00,25.5,24.5,29.76,NW,322,12.0,17.0,96,0.00,,,0.00,0,Wunderground v.1.15,2013-03-11 10:57:00,
2013-03-11 05:58:00,25.5,24.5,29.76,NW,309,17.0,17.0,96,0.00,,,0.00,0,Wunderground v.1.15,2013-03-11 10:58:00,
2013-03-11 06:01:00,25.5,24.5,29.76,NW,319,8.0,17.0,96,0.00,,,0.00,0,Wunderground v.1.15,2013-03-11 11:01:00,
2013-03-11 06:02:00,25.5,24.5,29.76,NNW,346,9.0,17.0,96,0.00,,,0.00,0,Wunderground v.1.15,2013-03-11 11:02:00,
2013-03-11 06:03:00,25.5,24.5,29.76,NW,325,15.0,17.0,96,0.00,,,0.00,0,Wunderground v.1.15,2013-03-11 11:03:00,
2013-03-11 06:05:00,25.5,24.5,29.76,NW,322,14.0,17.0,96,0.00,,,0.00,0,Wunderground v.1.15,2013-03-11 11:05:00,
2013-03-11 06:06:00,25.5,24.5,29.76,NW,311,15.0,18.0,96,0.00,,,0.00,0,Wunderground v.1.15,2013-03-11 11:06:00,
2013-03-11 06:08:00,25.5,24.5,29.76,NW,323,11.0,18.0,96,0.00,,,0.00,0,Wunderground v.1.15,2013-03-11 11:08:00,
2013-03-11 06:09:00,25.5,24.5,29.76,NW,320,10.0,18.0,96,0.00,,,0.00,0,Wunderground v.1.15,2013-03-11 11:09:00,
2013-03-11 06:11:00,25.5,24.5,29.76,NW,318,9.0,13.0,96,0.00,,,0.00,0,Wunderground v.1.15,2013-03-11 11:11:00,
2013-03-11 06:14:00,25.5,24.5,29.76,NW,322,12.0,16.0,96,0.00,,,0.00,0,Wunderground v.1.15,2013-03-11 11:14:00,
2013-03-11 06:17:00,25.5,24.5,29.76,NW,326,14.0,16.0,96,0.00,,,0.00,0,Wunderground v.1.15,2013-03-11 11:17:00,
2013-03-11 06:18:00,25.5,24.5,29.76,NNW,329,11.0,16.0,96,0.00,,,0.00,0,Wunderground v.1.15,2013-03-11 11:18:00,
2013-03-11 06:21:00,25.5,24.5,29.76,NW,322,13.0,16.0,96,0.00,,,0.00,0,Wunderground v.1.15,2013-03-11 11:21:00,
2013-03-11 06:22:00,25.5,24.5,29.76,NW,313,13.0,16.0,96,0.00,,,0.00,0,Wunderground v.1.15,2013-03-11 11:22:00,
2013-03-11 06:23:00,25.5,24.5,29.76,NW,315,15.0,16.0,96,0.00,,,0.00,0,Wunderground v.1.15,2013-03-11 11:23:00,
2013-03-11 06:27:00,25.5,24.5,29.76,NNW,329,14.0,17.0,96,0.00,,,0.00,0,Wunderground v.1.15,2013-03-11 11:27:00,
2013-03-11 06:28:00,25.5,24.5,29.76,NW,319,13.0,17.0,96,0.00,,,0.00,0,Wunderground v.1.15,2013-03-11 11:28:00,
2013-03-11 06:29:00,25.5,24.5,29.76,NW,312,13.0,18.0,96,0.00,,,0.00,0,Wunderground v.1.15,2013-03-11 11:29:00,
2013-03-11 06:33:00,25.6,24.6,29.76,NNW,331,10.0,16.0,96,0.00,,,0.00,0,Wunderground v.1.15,2013-03-11 11:33:00,
2013-03-11 06:34:00,25.5,24.5,29.76,NW,314,17.0,17.0,96,0.00,,,0.00,0,Wunderground v.1.15,2013-03-11 11:34:00,
2013-03-11 06:35:00,25.5,24.5,29.76,NNW,327,11.0,17.0,96,0.00,,,0.00,0,Wunderground v.1.15,2013-03-11 11:35:00,
2013-03-11 06:39:00,25.6,24.6,29.76,NW,315,13.0,17.0,96,0.00,,,0.00,0,Wunderground v.1.15,2013-03-11 11:39:00,
2013-03-11 06:40:00,25.6,24.6,29.76,NW,321,16.0,16.0,96,0.00,,,0.00,0,Wunderground v.1.15,2013-03-11 11:40:00,
2013-03-11 06:42:00,25.6,24.6,29.77,NW,316,16.0,16.0,96,0.00,,,0.00,0,Wunderground v.1.15,2013-03-11 11:42:00,
2013-03-11 06:44:00,25.6,24.6,29.77,NW,320,12.0,16.0,96,0.00,,,0.00,0,Wunderground v.1.15,2013-03-11 11:44:00,
2013-03-11 06:45:00,25.6,24.6,29.77,NW,324,14.0,16.0,96,0.00,,,0.00,0,Wunderground v.1.15,2013-03-11 11:45:00,
2013-03-11 06:46:00,25.6,24.6,29.77,NW,319,17.0,17.0,96,0.00,,,0.00,0,Wunderground v.1.15,2013-03-11 11:46:00,
2013-03-11 06:48:00,25.6,24.6,29.77,NW,321,15.0,17.0,96,0.00,,,0.00,0,Wunderground v.1.15,2013-03-11 11:48:00,
2013-03-11 06:50:00,25.6,24.6,29.77,NW,323,11.0,14.0,96,0.00,,,0.00,0,Wunderground v.1.15,2013-03-11 11:50:00,
2013-03-11 06:51:00,25.6,24.6,29.77,NW,323,11.0,16.0,96,0.00,,,0.00,0,Wunderground v.1.15,2013-03-11 11:51:00,
2013-03-11 06:54:00,25.6,24.6,29.77,NW,313,17.0,17.0,96,0.00,,,0.00,0,Wunderground v.1.15,2013-03-11 11:54:00,
2013-03-11 06:56:00,25.6,24.6,29.77,NW,309,13.0,18.0,96,0.00,,,0.00,0,Wunderground v.1.15,2013-03-11 11:56:00,
2013-03-11 06:57:00,25.6,24.6,29.77,NW,323,15.0,18.0,96,0.00,,,0.00,0,Wunderground v.1.15,2013-03-11 11:57:00,
2013-03-11 07:01:00,25.6,24.6,29.77,NW,319,13.0,16.0,96,0.00,,,0.00,0,Wunderground v.1.15,2013-03-11 12:01:00,
2013-03-11 07:02:00,25.6,24.6,29.77,NW,319,12.0,16.0,96,0.00,,,0.00,0,Wunderground v.1.15,2013-03-11 12:02:00,
2013-03-11 07:03:00,25.6,24.6,29.77,NW,315,11.0,16.0,96,0.00,,,0.00,0,Wunderground v.1.15,2013-03-11 12:03:00,
2013-03-11 07:07:00,25.6,24.6,29.77,NNW,331,11.0,19.0,96,0.00,,,0.00,0,Wunderground v.1.15,2013-03-11 12:07:00,
2013-03-11 07:08:00,25.6,24.6,29.78,NW,315,15.0,19.0,96,0.00,,,0.00,0,Wunderground v.1.15,2013-03-11 12:08:00,
2013-03-11 07:09:00,25.6,24.6,29.78,NW,317,15.0,19.0,96,0.00,,,0.00,0,Wunderground v.1.15,2013-03-11 12:09:00,
2013-03-11 07:12:00,25.5,24.5,29.78,NW,317,11.0,15.0,96,0.00,,,0.00,0,Wunderground v.1.15,2013-03-11 12:12:00,
2013-03-11 07:13:00,25.5,24.5,29.78,NW,322,13.0,15.0,96,0.00,,,0.00,0,Wunderground v.1.15,2013-03-11 12:13:00,
2013-03-11 07:14:00,25.5,24.5,29.78,NNW,339,14.0,20.0,96,0.00,,,0.00,0,Wunderground v.1.15,2013-03-11 12:14:00,
2013-03-11 07:18:00,25.4,24.4,29.78,NW,319,13.0,20.0,96,0.00,,,0.00,0,Wunderground v.1.15,2013-03-11 12:18:00,
2013-03-11 07:19:00,25.4,24.4,29.78,NW,317,15.0,20.0,96,0.00,,,0.00,0,Wunderground v.1.15,2013-03-11 12:19:00,
2013-03-11 07:20:00,25.5,24.5,29.78,NW,317,15.0,15.0,96,0.00,,,0.00,0,Wunderground v.1.15,2013-03-11 12:20:00,
2013-03-11 07:24:00,25.4,24.4,29.78,NW,319,13.0,19.0,96,0.00,,,0.00,0,Wunderground v.1.15,2013-03-11 12:24:00,
2013-03-11 07:25:00,25.4,24.4,29.78,NW,319,15.0,19.0,96,0.00,,,0.00,0,Wunderground v.1.15,2013-03-11 12:25:00,
2013-03-11 07:26:00,25.4,24.4,29.78,NW,310,17.0,19.0,96,0.00,,,0.00,0,Wunderground v.1.15,2013-03-11 12:26:00,
2013-03-11 07:27:00,25.3,24.3,29.78,NW,325,10.0,19.0,96,0.00,,,0.00,0,Wunderground v.1.15,2013-03-11 12:27:00,
2013-03-11 07:30:00,25.3,24.3,29.78,NNW,333,12.0,15.0,96,0.00,,,0.00,0,Wunderground v.1.15,2013-03-11 12:30:00,
2013-03-11 07:31:00,25.2,24.2,29.78,NW,316,15.0,15.0,96,0.00,,,0.00,0,Wunderground v.1.15,2013-03-11 12:31:00,
2013-03-11 07:32:00,25.2,24.2,29.78,NNW,327,5.0,15.0,96,0.00,,,0.00,0,Wunderground v.1.15,2013-03-11 12:32:00,
2013-03-11 07:33:00,25.2,24.2,29.78,NW,325,11.0,15.0,96,0.00,,,0.00,0,Wunderground v.1.15,2013-03-11 12:33:00,
2013-03-11 07:36:00,25.2,24.2,29.78,NW,323,8.0,16.0,96,0.00,,,0.00,0,Wunderground v.1.15,2013-03-11 12:36:00,
2013-03-11 07:38:00,25.1,24.1,29.78,NW,317,14.0,16.0,96,0.00,,,0.00,5,Wunderground v.1.15,2013-03-11 12:38:00,
2013-03-11 07:41:00,25.1,24.1,29.78,NNW,347,10.0,11.0,96,0.00,,,0.00,7,Wunderground v.1.15,2013-03-11 12:41:00,
2013-03-11 07:42:00,25.1,24.1,29.78,NNW,329,6.0,11.0,96,0.00,,,0.00,7,Wunderground v.1.15,2013-03-11 12:42:00,
2013-03-11 07:44:00,25.1,24.1,29.78,NNW,334,7.0,13.0,96,0.00,,,0.00,9,Wunderground v.1.15,2013-03-11 12:44:00,
2013-03-11 07:47:00,25.1,24.1,29.78,NNW,337,10.0,14.0,96,0.00,,,0.00,11,Wunderground v.1.15,2013-03-11 12:47:00,
2013-03-11 07:48:00,25.1,24.1,29.78,NW,315,12.0,14.0,96,0.00,,,0.00,11,Wunderground v.1.15,2013-03-11 12:48:00,
2013-03-11 07:49:00,25.2,24.2,29.78,NNW,346,9.0,15.0,96,0.00,,,0.00,12,Wunderground v.1.15,2013-03-11 12:49:00,
2013-03-11 07:53:00,25.1,24.1,29.78,NW,319,12.0,13.0,96,0.00,,,0.00,21,Wunderground v.1.15,2013-03-11 12:53:00,
2013-03-11 07:54:00,25.2,24.2,29.78,NW,323,15.0,16.0,96,0.00,,,0.00,26,Wunderground v.1.15,2013-03-11 12:54:00,
2013-03-11 07:58:00,25.2,24.2,29.78,NW,319,13.0,17.0,96,0.00,,,0.00,32,Wunderground v.1.15,2013-03-11 12:58:00,
2013-03-11 07:59:00,25.2,24.2,29.78,NW,320,11.0,17.0,96,0.00,,,0.00,33,Wunderground v.1.15,2013-03-11 12:59:00,
2013-03-11 08:00:00,25.2,24.2,29.78,NW,308,15.0,15.0,96,0.00,,,0.00,35,Wunderground v.1.15,2013-03-11 13:00:00,
2013-03-11 08:02:00,25.2,24.2,29.79,NW,325,12.0,15.0,96,0.00,,,0.00,35,Wunderground v.1.15,2013-03-11 13:02:00,
2013-03-11 08:04:00,25.2,24.2,29.79,NW,315,11.0,15.0,96,0.00,,,0.00,33,Wunderground v.1.15,2013-03-11 13:04:00,
2013-03-11 08:05:00,25.2,24.2,29.79,NW,321,15.0,15.0,96,0.00,,,0.00,33,Wunderground v.1.15,2013-03-11 13:05:00,
2013-03-11 08:08:00,25.2,24.2,29.79,NW,306,13.0,16.0,96,0.00,,,0.00,33,Wunderground v.1.15,2013-03-11 13:08:00,
2013-03-11 08:10:00,25.2,24.2,29.79,NW,313,18.0,18.0,96,0.00,,,0.00,37,Wunderground v.1.15,2013-03-11 13:10:00,
2013-03-11 08:11:00,25.2,24.2,29.79,NW,313,17.0,18.0,96,0.00,,,0.00,40,Wunderground v.1.15,2013-03-11 13:11:00,
2013-03-11 08:13:00,25.2,24.2,29.79,NW,324,17.0,18.0,96,0.00,,,0.00,47,Wunderground v.1.15,2013-03-11 13:13:00,
2013-03-11 08:16:00,25.2,24.2,29.79,NW,325,15.0,18.0,96,0.00,,,0.00,56,Wunderground v.1.15,2013-03-11 13:16:00,
2013-03-11 08:18:00,25.1,24.1,29.79,NW,308,16.0,18.0,96,0.00,,,0.00,56,Wunderground v.1.15,2013-03-11 13:18:00,
2013-03-11 08:19:00,25.1,24.1,29.79,NW,316,12.0,18.0,96,0.00,,,0.00,54,Wunderground v.1.15,2013-03-11 13:19:00,
2013-03-11 08:21:00,25.1,24.1,29.79,NNW,327,9.0,15.0,96,0.00,,,0.00,42,Wunderground v.1.15,2013-03-11 13:21:00,
2013-03-11 08:23:00,25.1,24.1,29.79,NNW,329,7.0,15.0,96,0.00,,,0.00,40,Wunderground v.1.15,2013-03-11 13:23:00,
2013-03-11 08:27:00,25.1,24.1,29.80,NW,324,11.0,15.0,96,0.00,,,0.00,42,Wunderground v.1.15,2013-03-11 13:27:00,
2013-03-11 08:28:00,25.1,24.1,29.80,NW,311,8.0,15.0,96,0.00,,,0.00,46,Wunderground v.1.15,2013-03-11 13:28:00,
2013-03-11 08:33:00,25.1,24.1,29.80,NNW,332,10.0,15.0,96,0.00,,,0.00,49,Wunderground v.1.15,2013-03-11 13:33:00,
2013-03-11 08:36:00,25.1,24.1,29.80,NNW,327,13.0,15.0,96,0.00,,,0.00,53,Wunderground v.1.15,2013-03-11 13:36:00,
2013-03-11 08:38:00,25.1,24.1,29.80,NW,311,13.0,15.0,96,0.00,,,0.00,49,Wunderground v.1.15,2013-03-11 13:38:00,
2013-03-11 08:39:00,25.1,24.1,29.80,NW,323,12.0,15.0,96,0.00,,,0.00,47,Wunderground v.1.15,2013-03-11 13:39:00,
2013-03-11 08:40:00,25.1,24.1,29.80,NW,324,12.0,15.0,96,0.00,,,0.00,47,Wunderground v.1.15,2013-03-11 13:40:00,
2013-03-11 08:41:00,25.1,24.1,29.80,NW,310,12.0,12.0,96,0.00,,,0.00,49,Wunderground v.1.15,2013-03-11 13:41:00,
2013-03-11 08:44:00,25.1,24.1,29.81,NW,323,10.0,16.0,96,0.00,,,0.00,81,Wunderground v.1.15,2013-03-11 13:44:00,
2013-03-11 08:45:00,25.1,24.1,29.81,NNW,327,11.0,16.0,96,0.00,,,0.00,81,Wunderground v.1.15,2013-03-11 13:45:00,
2013-03-11 08:49:00,25.0,24.0,29.81,NW,318,15.0,16.0,96,0.00,,,0.00,67,Wunderground v.1.15,2013-03-11 13:49:00,
2013-03-11 08:50:00,25.0,24.0,29.81,NW,306,15.0,16.0,96,0.00,,,0.00,69,Wunderground v.1.15,2013-03-11 13:50:00,
2013-03-11 08:51:00,25.0,24.0,29.81,NNW,329,15.0,15.0,96,0.00,,,0.00,72,Wunderground v.1.15,2013-03-11 13:51:00,
2013-03-11 08:54:00,25.0,24.0,29.81,NW,318,13.0,15.0,96,0.00,,,0.00,70,Wunderground v.1.15,2013-03-11 13:54:00,
2013-03-11 08:55:00,25.0,24.0,29.81,NW,317,10.0,15.0,96,0.00,,,0.00,63,Wunderground v.1.15,2013-03-11 13:55:00,
2013-03-11 08:57:00,25.0,24.0,29.81,NW,323,13.0,17.0,96,0.00,,,0.00,63,Wunderground v.1.15,2013-03-11 13:57:00,
2013-03-11 09:00:00,25.0,24.0,29.81,NW,321,13.0,15.0,96,0.00,,,0.00,58,Wunderground v.1.15,2013-03-11 14:00:00,
2013-03-11 09:02:00,24.9,23.9,29.81,NW,318,13.0,15.0,96,0.00,,,0.00,51,Wunderground v.1.15,2013-03-11 14:02:00,
2013-03-11 09:04:00,24.9,23.9,29.81,NW,313,12.0,15.0,96,0.00,,,0.00,51,Wunderground v.1.15,2013-03-11 14:04:00,
2013-03-11 09:06:00,24.9,23.9,29.81,NW,310,18.0,18.0,96,0.00,,,0.00,58,Wunderground v.1.15,2013-03-11 14:06:00,
2013-03-11 09:07:00,25.0,24.0,29.81,NW,315,14.0,18.0,96,0.00,,,0.00,77,Wunderground v.1.15,2013-03-11 14:07:00,
2013-03-11 09:09:00,25.0,24.0,29.81,NW,312,15.0,18.0,96,0.00,,,0.00,97,Wunderground v.1.15,2013-03-11 14:09:00,
2013-03-11 09:12:00,25.0,24.0,29.81,NW,319,15.0,16.0,96,0.00,,,0.00,109,Wunderground v.1.15,2013-03-11 14:12:00,
2013-03-11 09:14:00,25.0,24.0,29.81,NW,309,12.0,16.0,96,0.00,,,0.00,125,Wunderground v.1.15,2013-03-11 14:14:00,
2013-03-11 09:16:00,25.0,24.0,29.81,NW,323,13.0,16.0,96,0.00,,,0.00,158,Wunderground v.1.15,2013-03-11 14:16:00,
2013-03-11 09:17:00,25.1,24.1,29.81,NW,317,15.0,16.0,96,0.00,,,0.00,162,Wunderground v.1.15,2013-03-11 14:17:00,
2013-03-11 09:18:00,25.1,24.1,29.81,NW,314,12.0,16.0,96,0.00,,,0.00,162,Wunderground v.1.15,2013-03-11 14:18:00,
2013-03-11 09:20:00,25.2,24.2,29.81,NW,315,12.0,16.0,96,0.00,,,0.00,137,Wunderground v.1.15,2013-03-11 14:20:00,
2013-03-11 09:21:00,25.2,24.2,29.81,NW,311,15.0,15.0,96,0.00,,,0.00,137,Wunderground v.1.15,2013-03-11 14:21:00,
2013-03-11 09:23:00,25.2,24.2,29.81,NW,319,16.0,16.0,96,0.00,,,0.00,148,Wunderground v.1.15,2013-03-11 14:23:00,
2013-03-11 09:24:00,25.2,24.2,29.81,NW,319,16.0,16.0,96,0.00,,,0.00,151,Wunderground v.1.15,2013-03-11 14:24:00,
2013-03-11 09:25:00,25.2,24.2,29.81,NW,319,11.0,18.0,96,0.00,,,0.00,149,Wunderground v.1.15,2013-03-11 14:25:00,
2013-03-11 09:27:00,25.2,24.2,29.81,NW,311,12.0,18.0,96,0.00,,,0.00,141,Wunderground v.1.15,2013-03-11 14:27:00,
2013-03-11 09:29:00,25.2,24.2,29.81,NW,314,16.0,18.0,96,0.00,,,0.00,141,Wunderground v.1.15,2013-03-11 14:29:00,
2013-03-11 09:30:00,25.2,24.2,29.81,NW,319,14.0,14.0,96,0.00,,,0.00,141,Wunderground v.1.15,2013-03-11 14:30:00,
2013-03-11 09:32:00,25.2,24.2,29.82,NW,317,15.0,19.0,96,0.00,,,0.00,135,Wunderground v.1.15,2013-03-11 14:32:00,
2013-03-11 09:33:00,25.2,24.2,29.82,NW,307,14.0,19.0,96,0.00,,,0.00,130,Wunderground v.1.15,2013-03-11 14:33:00,
2013-03-11 09:34:00,25.2,24.2,29.82,NW,317,14.0,19.0,96,0.00,,,0.00,128,Wunderground v.1.15,2013-03-11 14:34:00,
2013-03-11 09:35:00,25.2,24.2,29.82,NW,313,14.0,19.0,96,0.00,,,0.00,132,Wunderground v.1.15,2013-03-11 14:35:00,
2013-03-11 09:38:00,25.1,23.9,29.82,NW,305,17.0,19.0,95,0.00,,,0.00,137,Wunderground v.1.15,2013-03-11 14:38:00,
2013-03-11 09:39:00,25.1,24.1,29.82,NW,322,16.0,19.0,96,0.00,,,0.00,139,Wunderground v.1.15,2013-03-11 14:39:00,
2013-03-11 09:41:00,25.1,24.1,29.82,NW,316,17.0,17.0,96,0.00,,,0.00,151,Wunderground v.1.15,2013-03-11 14:41:00,
2013-03-11 09:44:00,25.1,24.1,29.82,NW,316,16.0,19.0,96,0.00,,,0.00,174,Wunderground v.1.15,2013-03-11 14:44:00,
2013-03-11 09:46:00,25.1,23.9,29.82,NW,314,13.0,19.0,95,0.00,,,0.00,181,Wunderground v.1.15,2013-03-11 14:46:00,
2013-03-11 09:48:00,25.1,23.9,29.82,NW,311,13.0,19.0,95,0.00,,,0.00,181,Wunderground v.1.15,2013-03-11 14:48:00,
2013-03-11 09:50:00,25.1,24.1,29.82,NW,319,13.0,15.0,96,0.00,,,0.00,188,Wunderground v.1.15,2013-03-11 14:50:00,
2013-03-11 09:51:00,25.2,24.2,29.82,NW,317,15.0,15.0,96,0.00,,,0.00,188,Wunderground v.1.15,2013-03-11 14:51:00,
2013-03-11 09:52:00,25.2,24.2,29.82,NW,313,15.0,17.0,96,0.00,,,0.00,190,Wunderground v.1.15,2013-03-11 14:52:00,
2013-03-11 09:54:00,25.2,24.2,29.82,NW,317,16.0,17.0,96,0.00,,,0.00,200,Wunderground v.1.15,2013-03-11 14:54:00,
2013-03-11 09:56:00,25.2,24.2,29.81,NW,314,17.0,19.0,96,0.00,,,0.00,204,Wunderground v.1.15,2013-03-11 14:56:00,
2013-03-11 09:57:00,25.2,24.2,29.81,NW,306,18.0,19.0,96,0.00,,,0.00,204,Wunderground v.1.15,2013-03-11 14:57:00,
2013-03-11 10:02:00,25.2,24.2,29.81,NNW,335,16.0,17.0,96,0.00,,,0.00,213,Wunderground v.1.15,2013-03-11 15:02:00,
2013-03-11 10:03:00,25.2,24.2,29.81,NW,315,17.0,17.0,96,0.00,,,0.00,213,Wunderground v.1.15,2013-03-11 15:03:00,
2013-03-11 10:04:00,25.2,24.2,29.81,NW,322,15.0,17.0,96,0.00,,,0.00,218,Wunderground v.1.15,2013-03-11 15:04:00,
2013-03-11 10:06:00,25.3,24.3,29.81,NW,312,14.0,17.0,96,0.00,,,0.00,221,Wunderground v.1.15,2013-03-11 15:06:00,
2013-03-11 10:08:00,25.3,24.3,29.81,NW,318,12.0,17.0,96,0.00,,,0.00,236,Wunderground v.1.15,2013-03-11 15:08:00,
2013-03-11 10:09:00,25.4,24.4,29.81,NW,313,11.0,17.0,96,0.00,,,0.00,244,Wunderground v.1.15,2013-03-11 15:09:00,
2013-03-11 10:13:00,25.4,24.2,29.81,NW,315,13.0,16.0,95,0.00,,,0.00,251,Wunderground v.1.15,2013-03-11 15:13:00,
2013-03-11 10:14:00,25.4,24.2,29.81,NW,321,14.0,16.0,95,0.00,,,0.00,251,Wunderground v.1.15,2013-03-11 15:14:00,
2013-03-11 10:18:00,25.4,24.2,29.81,NW,319,13.0,17.0,95,0.00,,,0.00,267,Wunderground v.1.15,2013-03-11 15:18:00,
2013-03-11 10:19:00,25.4,24.2,29.81,NW,317,16.0,17.0,95,0.00,,,0.00,267,Wunderground v.1.15,2013-03-11 15:19:00,
2013-03-11 10:20:00,25.5,24.3,29.81,North,360,11.0,14.0,95,0.00,,,0.00,267,Wunderground v.1.15,2013-03-11 15:20:00,
2013-03-11 10:24:00,25.6,24.4,29.81,NW,313,17.0,17.0,95,0.00,,,0.00,279,Wunderground v.1.15,2013-03-11 15:24:00,
2013-03-11 10:25:00,25.6,24.4,29.81,NW,316,12.0,17.0,95,0.00,,,0.00,278,Wunderground v.1.15,2013-03-11 15:25:00,
2013-03-11 10:27:00,25.6,24.4,29.81,NW,313,13.0,17.0,95,0.00,,,0.00,274,Wunderground v.1.15,2013-03-11 15:27:00,
2013-03-11 10:30:00,25.7,24.5,29.81,NW,313,13.0,17.0,95,0.00,,,0.00,271,Wunderground v.1.15,2013-03-11 15:30:00,
2013-03-11 10:32:00,25.7,24.5,29.81,NW,325,12.0,16.0,95,0.00,,,0.00,271,Wunderground v.1.15,2013-03-11 15:32:00,
2013-03-11 10:36:00,25.8,24.6,29.81,NW,317,14.0,16.0,95,0.00,,,0.00,285,Wunderground v.1.15,2013-03-11 15:36:00,
2013-03-11 10:38:00,25.8,24.6,29.81,NW,314,15.0,16.0,95,0.00,,,0.00,294,Wunderground v.1.15,2013-03-11 15:38:00,
2013-03-11 10:42:00,25.7,24.5,29.81,NW,322,14.0,18.0,95,0.00,,,0.00,295,Wunderground v.1.15,2013-03-11 15:42:00,
2013-03-11 10:47:00,25.6,24.4,29.81,NW,309,17.0,18.0,95,0.00,,,0.00,287,Wunderground v.1.15,2013-03-11 15:47:00,
2013-03-11 10:50:00,25.6,24.4,29.81,NW,311,15.0,16.0,95,0.00,,,0.00,262,Wunderground v.1.15,2013-03-11 15:50:00,
2013-03-11 10:52:00,25.6,24.4,29.82,NW,313,11.0,16.0,95,0.00,,,0.00,251,Wunderground v.1.15,2013-03-11 15:52:00,
2013-03-11 10:53:00,25.6,24.4,29.82,NW,317,13.0,16.0,95,0.00,,,0.00,251,Wunderground v.1.15,2013-03-11 15:53:00,
2013-03-11 10:54:00,25.6,24.4,29.81,NW,311,11.0,16.0,95,0.00,,,0.00,251,Wunderground v.1.15,2013-03-11 15:54:00,
2013-03-11 10:56:00,25.7,24.5,29.82,NW,317,18.0,18.0,95,0.00,,,0.00,237,Wunderground v.1.15,2013-03-11 15:56:00,
2013-03-11 10:59:00,25.6,24.4,29.82,NW,316,16.0,21.0,95,0.00,,,0.00,230,Wunderground v.1.15,2013-03-11 15:59:00,
2013-03-11 11:00:00,25.5,24.3,29.82,NW,319,16.0,19.0,95,0.00,,,0.00,237,Wunderground v.1.15,2013-03-11 16:00:00,
2013-03-11 11:03:00,25.4,24.2,29.81,NW,319,12.0,19.0,95,0.00,,,0.00,250,Wunderground v.1.15,2013-03-11 16:03:00,
2013-03-11 11:04:00,25.4,24.2,29.82,NW,309,12.0,19.0,95,0.00,,,0.00,264,Wunderground v.1.15,2013-03-11 16:04:00,
2013-03-11 11:07:00,25.6,24.4,29.82,WNW,299,16.0,19.0,95,0.00,,,0.00,267,Wunderground v.1.15,2013-03-11 16:07:00,
2013-03-11 11:09:00,25.6,24.4,29.82,NW,311,14.0,19.0,95,0.00,,,0.00,278,Wunderground v.1.15,2013-03-11 16:09:00,
2013-03-11 11:11:00,25.6,24.4,29.82,WNW,292,16.0,16.0,95,0.00,,,0.00,276,Wunderground v.1.15,2013-03-11 16:11:00,
2013-03-11 11:13:00,25.6,24.4,29.82,NW,305,16.0,17.0,95,0.00,,,0.00,283,Wunderground v.1.15,2013-03-11 16:13:00,
2013-03-11 11:14:00,25.5,24.3,29.82,NW,306,18.0,18.0,95,0.00,,,0.00,290,Wunderground v.1.15,2013-03-11 16:14:00,
2013-03-11 11:15:00,25.5,24.3,29.82,NW,309,18.0,18.0,95,0.00,,,0.00,297,Wunderground v.1.15,2013-03-11 16:15:00,
2013-03-11 11:16:00,25.4,24.2,29.82,NW,306,20.0,20.0,95,0.00,,,0.00,294,Wunderground v.1.15,2013-03-11 16:16:00,
2013-03-11 11:19:00,25.3,24.1,29.82,NW,304,17.0,20.0,95,0.00,,,0.00,283,Wunderground v.1.15,2013-03-11 16:19:00,
2013-03-11 11:21:00,25.3,24.1,29.82,WNW,303,20.0,20.0,95,0.00,,,0.00,272,Wunderground v.1.15,2013-03-11 16:21:00,
2013-03-11 11:23:00,25.3,24.1,29.82,NW,306,17.0,20.0,95,0.00,,,0.00,278,Wunderground v.1.15,2013-03-11 16:23:00,
2013-03-11 11:26:00,25.3,24.1,29.82,NW,321,16.0,20.0,95,0.00,,,0.00,264,Wunderground v.1.15,2013-03-11 16:26:00,
2013-03-11 11:27:00,25.3,24.1,29.82,WNW,300,18.0,20.0,95,0.00,,,0.00,264,Wunderground v.1.15,2013-03-11 16:27:00,
2013-03-11 11:28:00,25.4,24.2,29.82,NW,305,14.0,20.0,95,0.00,,,0.00,264,Wunderground v.1.15,2013-03-11 16:28:00,
2013-03-11 11:32:00,25.5,24.3,29.82,NW,306,14.0,18.0,95,0.00,,,0.00,315,Wunderground v.1.15,2013-03-11 16:32:00,
2013-03-11 11:33:00,25.6,24.4,29.82,NW,304,20.0,20.0,95,0.00,,,0.00,315,Wunderground v.1.15,2013-03-11 16:33:00,
2013-03-11 11:34:00,25.5,24.3,29.82,NW,307,17.0,20.0,95,0.00,,,0.00,313,Wunderground v.1.15,2013-03-11 16:34:00,
2013-03-11 11:37:00,25.4,24.2,29.82,NW,313,15.0,20.0,95,0.00,,,0.00,301,Wunderground v.1.15,2013-03-11 16:37:00,
2013-03-11 11:39:00,25.4,24.2,29.82,NW,308,19.0,20.0,95,0.00,,,0.00,299,Wunderground v.1.15,2013-03-11 16:39:00,
2013-03-11 11:40:00,25.5,24.3,29.82,NW,307,13.0,17.0,95,0.00,,,0.00,292,Wunderground v.1.15,2013-03-11 16:40:00,
2013-03-11 11:42:00,25.5,24.3,29.82,WNW,302,17.0,22.0,95,0.00,,,0.00,294,Wunderground v.1.15,2013-03-11 16:42:00,
2013-03-11 11:43:00,25.5,24.3,29.82,WNW,296,18.0,22.0,95,0.00,,,0.00,292,Wunderground v.1.15,2013-03-11 16:43:00,
2013-03-11 11:44:00,25.5,24.3,29.82,NW,306,18.0,22.0,95,0.00,,,0.00,290,Wunderground v.1.15,2013-03-11 16:44:00,
2013-03-11 11:45:00,25.5,24.3,29.82,NW,305,17.0,22.0,95,0.00,,,0.00,290,Wunderground v.1.15,2013-03-11 16:45:00,
2013-03-11 11:49:00,25.7,24.5,29.82,NW,307,17.0,22.0,95,0.00,,,0.00,352,Wunderground v.1.15,2013-03-11 16:49:00,
2013-03-11 11:50:00,25.7,24.5,29.82,NW,313,15.0,17.0,95,0.00,,,0.00,369,Wunderground v.1.15,2013-03-11 16:50:00,
2013-03-11 11:52:00,25.8,24.6,29.82,NW,305,15.0,17.0,95,0.00,,,0.00,367,Wunderground v.1.15,2013-03-11 16:52:00,
2013-03-11 11:54:00,25.9,24.7,29.82,NW,304,16.0,18.0,95,0.00,,,0.00,338,Wunderground v.1.15,2013-03-11 16:54:00,
2013-03-11 11:55:00,26.0,24.8,29.82,WNW,300,15.0,18.0,95,0.00,,,0.00,330,Wunderground v.1.15,2013-03-11 16:55:00,
2013-03-11 11:57:00,26.0,24.8,29.82,NW,304,14.0,20.0,95,0.00,,,0.00,338,Wunderground v.1.15,2013-03-11 16:57:00,
2013-03-11 11:58:00,26.1,24.9,29.82,NW,311,17.0,20.0,95,0.00,,,0.00,341,Wunderground v.1.15,2013-03-11 16:58:00,
2013-03-11 12:00:00,26.1,24.9,29.82,WNW,298,14.0,16.0,95,0.00,,,0.00,360,Wunderground v.1.15,2013-03-11 17:00:00,
2013-03-11 12:01:00,26.2,25.0,29.82,NW,309,15.0,16.0,95,0.00,,,0.00,360,Wunderground v.1.15,2013-03-11 17:01:00,
2013-03-11 12:03:00,26.2,25.0,29.82,NW,304,14.0,18.0,95,0.00,,,0.00,373,Wunderground v.1.15,2013-03-11 17:03:00,
2013-03-11 12:04:00,26.3,25.1,29.82,NW,311,15.0,18.0,95,0.00,,,0.00,394,Wunderground v.1.15,2013-03-11 17:04:00,
2013-03-11 12:05:00,26.3,25.1,29.82,WNW,297,18.0,18.0,95,0.00,,,0.00,390,Wunderground v.1.15,2013-03-11 17:05:00,
2013-03-11 12:07:00,26.4,25.2,29.82,NW,312,15.0,18.0,95,0.00,,,0.00,392,Wunderground v.1.15,2013-03-11 17:07:00,
2013-03-11 12:08:00,26.5,25.3,29.82,NW,306,16.0,18.0,95,0.00,,,0.00,394,Wunderground v.1.15,2013-03-11 17:08:00,
2013-03-11 12:09:00,26.5,25.3,29.82,NW,304,14.0,18.0,95,0.00,,,0.00,392,Wunderground v.1.15,2013-03-11 17:09:00,
2013-03-11 12:11:00,26.5,25.3,29.82,NW,306,13.0,16.0,95,0.00,,,0.00,406,Wunderground v.1.15,2013-03-11 17:11:00,
2013-03-11 12:13:00,26.5,25.3,29.82,WNW,296,15.0,20.0,95,0.00,,,0.00,387,Wunderground v.1.15,2013-03-11 17:13:00,
2013-03-11 12:14:00,26.5,25.0,29.82,NW,304,16.0,20.0,94,0.00,,,0.00,390,Wunderground v.1.15,2013-03-11 17:14:00,
2013-03-11 12:16:00,26.5,25.0,29.82,WNW,300,17.0,20.0,94,0.00,,,0.00,406,Wunderground v.1.15,2013-03-11 17:16:00,
2013-03-11 12:17:00,26.5,25.0,29.82,NW,306,17.0,20.0,94,0.00,,,0.00,406,Wunderground v.1.15,2013-03-11 17:17:00,
2013-03-11 12:18:00,26.5,25.0,29.82,NW,309,18.0,20.0,94,0.00,,,0.00,420,Wunderground v.1.15,2013-03-11 17:18:00,
2013-03-11 12:19:00,26.4,24.9,29.82,NW,305,16.0,20.0,94,0.00,,,0.00,422,Wunderground v.1.15,2013-03-11 17:19:00,
2013-03-11 12:22:00,26.4,24.9,29.82,NW,315,18.0,20.0,94,0.00,,,0.00,417,Wunderground v.1.15,2013-03-11 17:22:00,
2013-03-11 12:24:00,26.4,24.9,29.82,WNW,299,16.0,20.0,94,0.00,,,0.00,431,Wunderground v.1.15,2013-03-11 17:24:00,
2013-03-11 12:25:00,26.4,24.9,29.82,NW,307,15.0,20.0,94,0.00,,,0.00,431,Wunderground v.1.15,2013-03-11 17:25:00,
2013-03-11 12:27:00,26.5,25.0,29.82,WNW,290,15.0,20.0,94,0.00,,,0.00,436,Wunderground v.1.15,2013-03-11 17:27:00,
2013-03-11 12:30:00,26.6,25.1,29.82,WNW,292,14.0,16.0,94,0.00,,,0.00,461,Wunderground v.1.15,2013-03-11 17:30:00,
2013-03-11 12:33:00,26.7,25.2,29.82,NW,312,19.0,19.0,94,0.00,,,0.00,506,Wunderground v.1.15,2013-03-11 17:33:00,
2013-03-11 12:35:00,26.7,25.2,29.82,NW,307,18.0,19.0,94,0.00,,,0.00,455,Wunderground v.1.15,2013-03-11 17:35:00,
2013-03-11 12:36:00,26.7,25.2,29.82,WNW,299,14.0,19.0,94,0.00,,,0.00,452,Wunderground v.1.15,2013-03-11 17:36:00,
2013-03-11 12:40:00,26.9,25.4,29.82,WNW,302,16.0,16.0,94,0.00,,,0.00,436,Wunderground v.1.15,2013-03-11 17:40:00,
2013-03-11 12:41:00,27.0,25.5,29.82,WNW,291,19.0,19.0,94,0.00,,,0.00,425,Wunderground v.1.15,2013-03-11 17:41:00,
2013-03-11 12:45:00,26.8,25.3,29.82,WNW,290,18.0,19.0,94,0.00,,,0.00,439,Wunderground v.1.15,2013-03-11 17:45:00,
2013-03-11 12:46:00,26.8,25.3,29.82,WNW,297,17.0,19.0,94,0.00,,,0.00,439,Wunderground v.1.15,2013-03-11 17:46:00,
2013-03-11 12:48:00,26.7,25.2,29.82,NW,304,19.0,19.0,94,0.00,,,0.00,436,Wunderground v.1.15,2013-03-11 17:48:00,
2013-03-11 12:51:00,26.7,25.2,29.83,WNW,295,15.0,18.0,94,0.00,,,0.00,462,Wunderground v.1.15,2013-03-11 17:51:00,
2013-03-11 12:52:00,26.7,25.2,29.83,WNW,295,17.0,18.0,94,0.00,,,0.00,462,Wunderground v.1.15,2013-03-11 17:52:00,
2013-03-11 12:53:00,26.5,25.0,29.82,WNW,300,17.0,20.0,94,0.00,,,0.00,448,Wunderground v.1.15,2013-03-11 17:53:00,
2013-03-11 12:56:00,26.3,24.8,29.83,WNW,299,17.0,20.0,94,0.00,,,0.00,429,Wunderground v.1.15,2013-03-11 17:56:00,
2013-03-11 12:57:00,26.3,24.8,29.83,WNW,295,20.0,20.0,94,0.00,,,0.00,438,Wunderground v.1.15,2013-03-11 17:57:00,
2013-03-11 12:58:00,26.3,24.8,29.83,WNW,297,18.0,20.0,94,0.00,,,0.00,450,Wunderground v.1.15,2013-03-11 17:58:00,
2013-03-11 12:59:00,26.3,24.8,29.83,WNW,293,15.0,20.0,94,0.00,,,0.00,459,Wunderground v.1.15,2013-03-11 17:59:00,
2013-03-11 13:02:00,26.3,24.8,29.82,WNW,295,18.0,22.0,94,0.00,,,0.00,450,Wunderground v.1.15,2013-03-11 18:02:00,
2013-03-11 13:03:00,26.3,24.8,29.82,WNW,295,20.0,22.0,94,0.00,,,0.00,450,Wunderground v.1.15,2013-03-11 18:03:00,
2013-03-11 13:04:00,26.2,24.7,29.83,WNW,297,22.0,22.0,94,0.00,,,0.00,461,Wunderground v.1.15,2013-03-11 18:04:00,
2013-03-11 13:05:00,26.2,24.7,29.83,WNW,298,21.0,22.0,94,0.00,,,0.00,461,Wunderground v.1.15,2013-03-11 18:05:00,
2013-03-11 13:08:00,26.2,24.7,29.82,WNW,298,16.0,22.0,94,0.00,,,0.00,457,Wunderground v.1.15,2013-03-11 18:08:00,
2013-03-11 13:10:00,26.3,24.8,29.82,NW,317,19.0,19.0,94,0.00,,,0.00,446,Wunderground v.1.15,2013-03-11 18:10:00,
2013-03-11 13:15:00,26.1,24.6,29.83,WNW,299,19.0,22.0,94,0.00,,,0.00,455,Wunderground v.1.15,2013-03-11 18:15:00,
2013-03-11 13:16:00,26.1,24.6,29.83,WNW,294,17.0,22.0,94,0.00,,,0.00,466,Wunderground v.1.15,2013-03-11 18:16:00,
2013-03-11 13:17:00,26.1,24.6,29.82,WNW,301,19.0,22.0,94,0.00,,,0.00,468,Wunderground v.1.15,2013-03-11 18:17:00,
2013-03-11 13:19:00,26.1,24.6,29.82,NW,310,23.0,23.0,94,0.00,,,0.00,468,Wunderground v.1.15,2013-03-11 18:19:00,
2013-03-11 13:21:00,26.0,24.5,29.82,WNW,298,16.0,20.0,94,0.00,,,0.00,510,Wunderground v.1.15,2013-03-11 18:21:00,
2013-03-11 13:23:00,26.0,24.5,29.82,NW,305,17.0,21.0,94,0.00,,,0.00,515,Wunderground v.1.15,2013-03-11 18:23:00,
2013-03-11 13:24:00,26.1,24.6,29.82,WNW,295,18.0,21.0,94,0.00,,,0.00,492,Wunderground v.1.15,2013-03-11 18:24:00,
2013-03-11 13:27:00,26.3,24.8,29.82,WNW,302,17.0,21.0,94,0.00,,,0.00,497,Wunderground v.1.15,2013-03-11 18:27:00,
2013-03-11 13:28:00,26.3,24.8,29.83,WNW,296,17.0,21.0,94,0.00,,,0.00,513,Wunderground v.1.15,2013-03-11 18:28:00,
2013-03-11 13:30:00,26.3,24.8,29.82,WNW,298,19.0,21.0,94,0.00,,,0.00,513,Wunderground v.1.15,2013-03-11 18:30:00,
2013-03-11 13:33:00,26.3,24.8,29.83,WNW,293,18.0,20.0,94,0.00,,,0.00,506,Wunderground v.1.15,2013-03-11 18:33:00,
2013-03-11 13:35:00,26.3,24.8,29.83,NW,305,20.0,20.0,94,0.00,,,0.00,506,Wunderground v.1.15,2013-03-11 18:35:00,
2013-03-11 13:39:00,26.2,24.7,29.83,NW,312,19.0,21.0,94,0.00,,,0.00,496,Wunderground v.1.15,2013-03-11 18:39:00,
2013-03-11 13:40:00,26.2,24.7,29.83,WNW,298,19.0,20.0,94,0.00,,,0.00,485,Wunderground v.1.15,2013-03-11 18:40:00,
2013-03-11 13:41:00,26.2,24.7,29.83,WNW,292,21.0,22.0,94,0.00,,,0.00,475,Wunderground v.1.15,2013-03-11 18:41:00,
2013-03-11 13:44:00,26.2,24.7,29.83,WNW,301,17.0,22.0,94,0.00,,,0.00,466,Wunderground v.1.15,2013-03-11 18:44:00,
2013-03-11 13:45:00,26.2,24.7,29.83,WNW,292,18.0,22.0,94,0.00,,,0.00,466,Wunderground v.1.15,2013-03-11 18:45:00,
2013-03-11 13:46:00,26.2,24.7,29.83,WNW,294,18.0,22.0,94,0.00,,,0.00,468,Wunderground v.1.15,2013-03-11 18:46:00,
2013-03-11 13:47:00,26.2,24.7,29.83,WNW,290,18.0,22.0,94,0.00,,,0.00,473,Wunderground v.1.15,2013-03-11 18:47:00,
2013-03-11 13:50:00,26.2,24.7,29.83,NW,310,19.0,22.0,94,0.00,,,0.00,492,Wunderground v.1.15,2013-03-11 18:50:00,
2013-03-11 13:51:00,26.2,24.7,29.83,WNW,300,18.0,20.0,94,0.00,,,0.00,497,Wunderground v.1.15,2013-03-11 18:51:00,
2013-03-11 13:52:00,26.1,24.4,29.83,WNW,296,21.0,21.0,93,0.00,,,0.00,531,Wunderground v.1.15,2013-03-11 18:52:00,
2013-03-11 13:56:00,26.2,24.7,29.83,NW,304,16.0,21.0,94,0.00,,,0.00,566,Wunderground v.1.15,2013-03-11 18:56:00,
2013-03-11 13:58:00,26.3,24.8,29.83,WNW,294,17.0,21.0,94,0.00,,,0.00,577,Wunderground v.1.15,2013-03-11 18:58:00,
2013-03-11 14:02:00,26.6,24.8,29.83,WNW,300,17.0,19.0,93,0.00,,,0.00,594,Wunderground v.1.15,2013-03-11 19:02:00,
2013-03-11 14:03:00,26.6,24.8,29.83,NW,304,18.0,19.0,93,0.00,,,0.00,585,Wunderground v.1.15,2013-03-11 19:03:00,
2013-03-11 14:07:00,26.6,24.8,29.83,WNW,299,20.0,20.0,93,0.00,,,0.00,582,Wunderground v.1.15,2013-03-11 19:07:00,
2013-03-11 14:08:00,26.6,24.8,29.83,WNW,302,20.0,20.0,93,0.00,,,0.00,570,Wunderground v.1.15,2013-03-11 19:08:00,
2013-03-11 14:10:00,26.6,24.8,29.83,WNW,295,17.0,18.0,93,0.00,,,0.00,564,Wunderground v.1.15,2013-03-11 19:10:00,
2013-03-11 14:11:00,26.6,24.8,29.83,WNW,295,16.0,18.0,93,0.00,,,0.00,552,Wunderground v.1.15,2013-03-11 19:11:00,
2013-03-11 14:14:00,26.7,24.9,29.83,WNW,292,16.0,20.0,93,0.00,,,0.00,563,Wunderground v.1.15,2013-03-11 19:14:00,
2013-03-11 14:16:00,26.7,24.9,29.83,WNW,292,18.0,20.0,93,0.00,,,0.00,541,Wunderground v.1.15,2013-03-11 19:16:00,
2013-03-11 14:19:00,26.8,24.8,29.83,WNW,303,15.0,20.0,92,0.00,,,0.00,512,Wunderground v.1.15,2013-03-11 19:19:00,
2013-03-11 14:21:00,26.9,24.9,29.83,WNW,292,17.0,17.0,92,0.00,,,0.00,510,Wunderground v.1.15,2013-03-11 19:21:00,
2013-03-11 14:22:00,26.8,24.8,29.83,WNW,292,17.0,18.0,92,0.00,,,0.00,510,Wunderground v.1.15,2013-03-11 19:22:00,
2013-03-11 14:23:00,26.8,24.8,29.83,WNW,293,20.0,20.0,92,0.00,,,0.00,543,Wunderground v.1.15,2013-03-11 19:23:00,
2013-03-11 14:25:00,26.8,24.8,29.83,WNW,294,18.0,20.0,92,0.00,,,0.00,501,Wunderground v.1.15,2013-03-11 19:25:00,
2013-03-11 14:28:00,26.8,24.8,29.83,WNW,293,19.0,20.0,92,0.00,,,0.00,506,Wunderground v.1.15,2013-03-11 19:28:00,
2013-03-11 14:29:00,26.7,24.7,29.83,WNW,296,16.0,20.0,92,0.00,,,0.00,520,Wunderground v.1.15,2013-03-11 19:29:00,
2013-03-11 14:33:00,27.1,25.1,29.83,WNW,290,15.0,17.0,92,0.00,,,0.00,469,Wunderground v.1.15,2013-03-11 19:33:00,
2013-03-11 14:34:00,27.1,25.1,29.83,WNW,294,15.0,17.0,92,0.00,,,0.00,469,Wunderground v.1.15,2013-03-11 19:34:00,
2013-03-11 14:35:00,27.1,25.1,29.83,WNW,290,16.0,17.0,92,0.00,,,0.00,454,Wunderground v.1.15,2013-03-11 19:35:00,
2013-03-11 14:39:00,27.0,24.7,29.83,WNW,292,18.0,20.0,91,0.00,,,0.00,452,Wunderground v.1.15,2013-03-11 19:39:00,
2013-03-11 14:40:00,26.8,24.5,29.83,WNW,294,19.0,19.0,91,0.00,,,0.00,452,Wunderground v.1.15,2013-03-11 19:40:00,
2013-03-11 14:44:00,26.7,24.7,29.83,WNW,286,16.0,19.0,92,0.00,,,0.00,448,Wunderground v.1.15,2013-03-11 19:44:00,
2013-03-11 14:45:00,26.7,24.4,29.83,WNW,293,17.0,19.0,91,0.00,,,0.00,471,Wunderground v.1.15,2013-03-11 19:45:00,
2013-03-11 14:49:00,26.9,24.6,29.83,WNW,296,16.0,19.0,91,0.00,,,0.00,482,Wunderground v.1.15,2013-03-11 19:49:00,
2013-03-11 14:50:00,26.9,24.6,29.83,WNW,293,17.0,19.0,91,0.00,,,0.00,471,Wunderground v.1.15,2013-03-11 19:50:00,
2013-03-11 14:51:00,26.9,24.6,29.83,WNW,295,15.0,19.0,91,0.00,,,0.00,469,Wunderground v.1.15,2013-03-11 19:51:00,
2013-03-11 14:55:00,26.9,24.6,29.83,WNW,296,16.0,19.0,91,0.00,,,0.00,455,Wunderground v.1.15,2013-03-11 19:55:00,
2013-03-11 14:56:00,27.0,24.7,29.83,WNW,292,17.0,19.0,91,0.00,,,0.00,448,Wunderground v.1.15,2013-03-11 19:56:00,
2013-03-11 15:00:00,27.1,24.8,29.83,WNW,296,13.0,15.0,91,0.00,,,0.00,448,Wunderground v.1.15,2013-03-11 20:00:00,
2013-03-11 15:01:00,27.1,24.8,29.83,WNW,302,13.0,15.0,91,0.00,,,0.00,452,Wunderground v.1.15,2013-03-11 20:01:00,
2013-03-11 15:05:00,27.2,24.9,29.83,WNW,297,16.0,17.0,91,0.00,,,0.00,455,Wunderground v.1.15,2013-03-11 20:05:00,
2013-03-11 15:06:00,27.2,24.9,29.83,WNW,293,16.0,17.0,91,0.00,,,0.00,457,Wunderground v.1.15,2013-03-11 20:06:00,
2013-03-11 15:08:00,27.2,24.9,29.83,WNW,293,16.0,17.0,91,0.00,,,0.00,476,Wunderground v.1.15,2013-03-11 20:08:00,
2013-03-11 15:11:00,27.4,25.1,29.83,WNW,284,16.0,16.0,91,0.00,,,0.00,506,Wunderground v.1.15,2013-03-11 20:11:00,
2013-03-11 15:12:00,27.3,25.0,29.83,WNW,295,17.0,17.0,91,0.00,,,0.00,513,Wunderground v.1.15,2013-03-11 20:12:00,
2013-03-11 15:13:00,27.4,25.1,29.83,WNW,294,16.0,17.0,91,0.00,,,0.00,519,Wunderground v.1.15,2013-03-11 20:13:00,
2013-03-11 15:14:00,27.3,24.8,29.83,WNW,289,14.0,17.0,90,0.00,,,0.00,534,Wunderground v.1.15,2013-03-11 20:14:00,
2013-03-11 15:17:00,27.5,25.0,29.83,WNW,294,17.0,17.0,90,0.00,,,0.00,534,Wunderground v.1.15,2013-03-11 20:17:00,
2013-03-11 15:18:00,27.5,25.0,29.83,WNW,292,14.0,17.0,90,0.00,,,0.00,534,Wunderground v.1.15,2013-03-11 20:18:00,
2013-03-11 15:19:00,27.6,25.1,29.83,WNW,299,15.0,17.0,90,0.00,,,0.00,529,Wunderground v.1.15,2013-03-11 20:19:00,
2013-03-11 15:20:00,27.6,25.1,29.83,WNW,295,17.0,17.0,90,0.00,,,0.00,524,Wunderground v.1.15,2013-03-11 20:20:00,
2013-03-11 15:22:00,27.6,25.1,29.83,WNW,290,17.0,17.0,90,0.00,,,0.00,519,Wunderground v.1.15,2013-03-11 20:22:00,
2013-03-11 15:23:00,27.6,25.1,29.83,WNW,298,13.0,17.0,90,0.00,,,0.00,522,Wunderground v.1.15,2013-03-11 20:23:00,
2013-03-11 15:25:00,27.6,25.1,29.83,WNW,297,16.0,18.0,90,0.00,,,0.00,587,Wunderground v.1.15,2013-03-11 20:25:00,
2013-03-11 15:26:00,27.6,25.1,29.83,WNW,295,15.0,18.0,90,0.00,,,0.00,601,Wunderground v.1.15,2013-03-11 20:26:00,
2013-03-11 15:28:00,27.7,25.2,29.83,WNW,300,12.0,18.0,90,0.00,,,0.00,640,Wunderground v.1.15,2013-03-11 20:28:00,
2013-03-11 15:29:00,27.7,25.2,29.83,WNW,296,14.0,18.0,90,0.00,,,0.00,640,Wunderground v.1.15,2013-03-11 20:29:00,
2013-03-11 15:31:00,28.0,25.4,29.83,WNW,298,15.0,15.0,90,0.00,,,0.00,603,Wunderground v.1.15,2013-03-11 20:31:00,
2013-03-11 15:32:00,28.0,25.4,29.83,WNW,298,15.0,16.0,90,0.00,,,0.00,554,Wunderground v.1.15,2013-03-11 20:32:00,
2013-03-11 15:34:00,28.1,25.3,29.83,WNW,295,13.0,16.0,89,0.00,,,0.00,478,Wunderground v.1.15,2013-03-11 20:34:00,
2013-03-11 15:35:00,28.0,25.2,29.83,WNW,296,17.0,17.0,89,0.00,,,0.00,464,Wunderground v.1.15,2013-03-11 20:35:00,
2013-03-11 15:37:00,27.8,25.0,29.83,NW,304,15.0,17.0,89,0.00,,,0.00,464,Wunderground v.1.15,2013-03-11 20:37:00,
2013-03-11 15:39:00,27.7,24.9,29.83,WNW,297,15.0,17.0,89,0.00,,,0.00,452,Wunderground v.1.15,2013-03-11 20:39:00,
2013-03-11 15:40:00,27.6,24.8,29.83,WNW,300,13.0,15.0,89,0.00,,,0.00,424,Wunderground v.1.15,2013-03-11 20:40:00,
2013-03-11 15:42:00,27.6,24.8,29.83,WNW,297,16.0,16.0,89,0.00,,,0.00,454,Wunderground v.1.15,2013-03-11 20:42:00,
2013-03-11 15:45:00,27.5,24.7,29.83,WNW,299,12.0,17.0,89,0.00,,,0.00,432,Wunderground v.1.15,2013-03-11 20:45:00,
2013-03-11 15:46:00,27.5,24.7,29.83,WNW,295,14.0,17.0,89,0.00,,,0.00,522,Wunderground v.1.15,2013-03-11 20:46:00,
2013-03-11 15:50:00,27.5,24.7,29.83,WNW,288,14.0,15.0,89,0.00,,,0.00,445,Wunderground v.1.15,2013-03-11 20:50:00,
2013-03-11 15:51:00,27.5,24.7,29.83,WNW,290,15.0,16.0,89,0.00,,,0.00,445,Wunderground v.1.15,2013-03-11 20:51:00,
2013-03-11 15:52:00,27.5,24.7,29.83,WNW,294,14.0,17.0,89,0.00,,,0.00,450,Wunderground v.1.15,2013-03-11 20:52:00,
2013-03-11 15:55:00,27.5,24.7,29.83,WNW,290,12.0,17.0,89,0.00,,,0.00,374,Wunderground v.1.15,2013-03-11 20:55:00,
2013-03-11 15:57:00,27.5,24.7,29.83,WNW,294,15.0,17.0,89,0.00,,,0.00,334,Wunderground v.1.15,2013-03-11 20:57:00,
2013-03-11 15:59:00,27.3,24.5,29.83,WNW,293,13.0,17.0,89,0.00,,,0.00,287,Wunderground v.1.15,2013-03-11 20:59:00,
2013-03-11 16:01:00,27.2,24.4,29.84,WNW,298,13.0,17.0,89,0.00,,,0.00,504,Wunderground v.1.15,2013-03-11 21:01:00,
2013-03-11 16:02:00,27.1,24.3,29.84,WNW,296,11.0,17.0,89,0.00,,,0.00,594,Wunderground v.1.15,2013-03-11 21:02:00,
2013-03-11 16:03:00,27.2,24.4,29.84,WNW,290,14.0,17.0,89,0.00,,,0.00,594,Wunderground v.1.15,2013-03-11 21:03:00,
2013-03-11 16:07:00,27.2,24.4,29.84,WNW,294,16.0,17.0,89,0.00,,,0.00,462,Wunderground v.1.15,2013-03-11 21:07:00,
2013-03-11 16:08:00,27.2,24.4,29.84,WNW,285,14.0,17.0,89,0.00,,,0.00,445,Wunderground v.1.15,2013-03-11 21:08:00,
2013-03-11 16:09:00,27.2,24.4,29.84,WNW,288,15.0,17.0,89,0.00,,,0.00,434,Wunderground v.1.15,2013-03-11 21:09:00,
2013-03-11 16:12:00,27.1,24.3,29.84,West,281,15.0,15.0,89,0.00,,,0.00,359,Wunderground v.1.15,2013-03-11 21:12:00,
2013-03-11 16:13:00,27.2,24.4,29.84,WNW,288,16.0,16.0,89,0.00,,,0.00,334,Wunderground v.1.15,2013-03-11 21:13:00,
2013-03-11 16:14:00,27.2,24.4,29.84,WNW,287,15.0,16.0,89,0.00,,,0.00,334,Wunderground v.1.15,2013-03-11 21:14:00,
2013-03-11 16:15:00,27.1,24.3,29.84,WNW,292,13.0,16.0,89,0.00,,,0.00,322,Wunderground v.1.15,2013-03-11 21:15:00,
2013-03-11 16:17:00,27.0,24.2,29.85,WNW,289,15.0,17.0,89,0.00,,,0.00,308,Wunderground v.1.15,2013-03-11 21:17:00,
2013-03-11 16:19:00,26.9,24.1,29.85,WNW,290,16.0,17.0,89,0.00,,,0.00,336,Wunderground v.1.15,2013-03-11 21:19:00,
2013-03-11 16:20:00,26.8,24.0,29.85,WNW,290,15.0,15.0,89,0.00,,,0.00,311,Wunderground v.1.15,2013-03-11 21:20:00,
2013-03-11 16:24:00,26.5,24.0,29.85,WNW,293,17.0,20.0,90,0.00,,,0.00,294,Wunderground v.1.15,2013-03-11 21:24:00,
2013-03-11 16:25:00,26.5,24.0,29.85,WNW,297,19.0,20.0,90,0.00,,,0.00,294,Wunderground v.1.15,2013-03-11 21:25:00,
2013-03-11 16:28:00,26.4,23.9,29.85,WNW,290,17.0,20.0,90,0.00,,,0.00,338,Wunderground v.1.15,2013-03-11 21:28:00,
2013-03-11 16:30:00,26.4,23.9,29.85,WNW,290,17.0,17.0,90,0.00,,,0.00,427,Wunderground v.1.15,2013-03-11 21:30:00,
2013-03-11 16:31:00,26.5,24.0,29.86,WNW,287,16.0,17.0,90,0.00,,,0.00,469,Wunderground v.1.15,2013-03-11 21:31:00,
2013-03-11 16:33:00,26.5,24.0,29.86,WNW,284,17.0,17.0,90,0.00,,,0.00,457,Wunderground v.1.15,2013-03-11 21:33:00,
2013-03-11 16:35:00,26.6,24.1,29.86,WNW,289,14.0,17.0,90,0.00,,,0.00,446,Wunderground v.1.15,2013-03-11 21:35:00,
2013-03-11 16:36:00,26.8,24.3,29.86,WNW,284,13.0,17.0,90,0.00,,,0.00,483,Wunderground v.1.15,2013-03-11 21:36:00,
2013-03-11 16:40:00,27.0,24.5,29.86,WNW,296,15.0,15.0,90,0.00,,,0.00,454,Wunderground v.1.15,2013-03-11 21:40:00,
2013-03-11 16:41:00,27.0,24.5,29.86,WNW,293,20.0,20.0,90,0.00,,,0.00,454,Wunderground v.1.15,2013-03-11 21:41:00,
2013-03-11 16:45:00,26.9,24.1,29.86,WNW,286,17.0,20.0,89,0.00,,,0.00,425,Wunderground v.1.15,2013-03-11 21:45:00,
2013-03-11 16:46:00,26.9,24.1,29.86,WNW,289,15.0,20.0,89,0.00,,,0.00,397,Wunderground v.1.15,2013-03-11 21:46:00,
2013-03-11 16:47:00,26.9,24.1,29.86,WNW,288,15.0,20.0,89,0.00,,,0.00,397,Wunderground v.1.15,2013-03-11 21:47:00,
2013-03-11 16:48:00,26.9,24.1,29.86,WNW,291,18.0,20.0,89,0.00,,,0.00,406,Wunderground v.1.15,2013-03-11 21:48:00,
2013-03-11 16:51:00,26.9,24.1,29.86,WNW,292,15.0,16.0,89,0.00,,,0.00,415,Wunderground v.1.15,2013-03-11 21:51:00,
2013-03-11 16:52:00,26.8,24.0,29.86,WNW,287,16.0,16.0,89,0.00,,,0.00,397,Wunderground v.1.15,2013-03-11 21:52:00,
2013-03-11 16:53:00,26.9,24.1,29.85,WNW,286,14.0,16.0,89,0.00,,,0.00,397,Wunderground v.1.15,2013-03-11 21:53:00,
2013-03-11 16:56:00,26.9,24.1,29.86,WNW,285,15.0,17.0,89,0.00,,,0.00,353,Wunderground v.1.15,2013-03-11 21:56:00,
2013-03-11 16:57:00,26.9,24.1,29.85,WNW,292,15.0,17.0,89,0.00,,,0.00,406,Wunderground v.1.15,2013-03-11 21:57:00,
2013-03-11 16:58:00,26.8,24.0,29.86,WNW,290,17.0,19.0,89,0.00,,,0.00,336,Wunderground v.1.15,2013-03-11 21:58:00,
2013-03-11 17:00:00,26.8,24.0,29.86,WNW,288,18.0,18.0,89,0.00,,,0.00,548,Wunderground v.1.15,2013-03-11 22:00:00,
2013-03-11 17:01:00,26.9,24.1,29.85,WNW,294,15.0,18.0,89,0.00,,,0.00,515,Wunderground v.1.15,2013-03-11 22:01:00,
2013-03-11 17:03:00,27.0,24.2,29.85,WNW,290,15.0,18.0,89,0.00,,,0.00,471,Wunderground v.1.15,2013-03-11 22:03:00,
2013-03-11 17:05:00,27.1,24.3,29.85,WNW,292,13.0,18.0,89,0.00,,,0.00,455,Wunderground v.1.15,2013-03-11 22:05:00,
2013-03-11 17:06:00,27.0,24.2,29.85,WNW,292,13.0,18.0,89,0.00,,,0.00,445,Wunderground v.1.15,2013-03-11 22:06:00,
2013-03-11 17:07:00,27.1,24.3,29.85,WNW,292,15.0,18.0,89,0.00,,,0.00,425,Wunderground v.1.15,2013-03-11 22:07:00,
2013-03-11 17:09:00,27.0,24.2,29.85,WNW,295,13.0,18.0,89,0.00,,,0.00,438,Wunderground v.1.15,2013-03-11 22:09:00,
2013-03-11 17:11:00,26.9,23.8,29.85,WNW,291,13.0,15.0,88,0.00,,,0.00,223,Wunderground v.1.15,2013-03-11 22:11:00,
2013-03-11 17:12:00,26.8,23.7,29.86,WNW,296,14.0,15.0,88,0.00,,,0.00,253,Wunderground v.1.15,2013-03-11 22:12:00,
2013-03-11 17:14:00,26.6,23.5,29.86,WNW,294,14.0,15.0,88,0.00,,,0.00,290,Wunderground v.1.15,2013-03-11 22:14:00,
2013-03-11 17:16:00,26.5,23.7,29.85,WNW,300,14.0,16.0,89,0.00,,,0.00,265,Wunderground v.1.15,2013-03-11 22:16:00,
2013-03-11 17:17:00,26.5,23.7,29.85,WNW,290,13.0,16.0,89,0.00,,,0.00,251,Wunderground v.1.15,2013-03-11 22:17:00,
2013-03-11 17:19:00,26.3,23.5,29.86,WNW,291,15.0,16.0,89,0.00,,,0.00,246,Wunderground v.1.15,2013-03-11 22:19:00,
2013-03-11 17:23:00,26.2,23.4,29.85,WNW,301,11.0,15.0,89,0.00,,,0.00,232,Wunderground v.1.15,2013-03-11 22:23:00,
2013-03-11 17:24:00,26.2,23.4,29.85,WNW,296,13.0,15.0,89,0.00,,,0.00,211,Wunderground v.1.15,2013-03-11 22:24:00,
2013-03-11 17:25:00,26.2,23.4,29.85,WNW,297,14.0,16.0,89,0.00,,,0.00,283,Wunderground v.1.15,2013-03-11 22:25:00,
2013-03-11 17:30:00,26.1,23.3,29.86,WNW,296,14.0,14.0,89,0.00,,,0.00,195,Wunderground v.1.15,2013-03-11 22:30:00,
2013-03-11 17:31:00,26.1,23.3,29.86,WNW,298,13.0,17.0,89,0.00,,,0.00,195,Wunderground v.1.15,2013-03-11 22:31:00,
2013-03-11 17:32:00,26.0,23.2,29.85,WNW,298,11.0,17.0,89,0.00,,,0.00,322,Wunderground v.1.15,2013-03-11 22:32:00,
2013-03-11 17:35:00,26.0,23.2,29.85,WNW,299,13.0,17.0,89,0.00,,,0.00,213,Wunderground v.1.15,2013-03-11 22:35:00,
2013-03-11 17:36:00,26.0,23.2,29.85,WNW,297,15.0,17.0,89,0.00,,,0.00,213,Wunderground v.1.15,2013-03-11 22:36:00,
2013-03-11 17:37:00,26.0,23.2,29.85,WNW,296,15.0,17.0,89,0.00,,,0.00,216,Wunderground v.1.15,2013-03-11 22:37:00,
2013-03-11 17:39:00,26.0,23.2,29.85,WNW,297,15.0,17.0,89,0.00,,,0.00,262,Wunderground v.1.15,2013-03-11 22:39:00,
2013-03-11 17:41:00,26.0,23.2,29.85,WNW,294,15.0,15.0,89,0.00,,,0.00,371,Wunderground v.1.15,2013-03-11 22:41:00,
2013-03-11 17:42:00,26.0,23.2,29.85,WNW,300,14.0,15.0,89,0.00,,,0.00,371,Wunderground v.1.15,2013-03-11 22:42:00,
2013-03-11 17:43:00,26.0,23.2,29.86,WNW,299,18.0,18.0,89,0.00,,,0.00,132,Wunderground v.1.15,2013-03-11 22:43:00,
2013-03-11 17:44:00,25.9,23.1,29.86,WNW,296,12.0,18.0,89,0.00,,,0.00,137,Wunderground v.1.15,2013-03-11 22:44:00,
2013-03-11 17:47:00,25.8,22.7,29.86,WNW,298,15.0,18.0,88,0.00,,,0.00,195,Wunderground v.1.15,2013-03-11 22:47:00,
2013-03-11 17:50:00,25.6,22.5,29.86,WNW,297,14.0,14.0,88,0.00,,,0.00,258,Wunderground v.1.15,2013-03-11 22:50:00,
2013-03-11 17:52:00,25.6,22.5,29.86,WNW,298,12.0,14.0,88,0.00,,,0.00,257,Wunderground v.1.15,2013-03-11 22:52:00,
2013-03-11 17:53:00,25.5,22.4,29.86,WNW,299,14.0,15.0,88,0.00,,,0.00,248,Wunderground v.1.15,2013-03-11 22:53:00,
2013-03-11 17:56:00,25.4,22.3,29.86,WNW,296,15.0,17.0,88,0.00,,,0.00,234,Wunderground v.1.15,2013-03-11 22:56:00,
2013-03-11 17:58:00,25.3,22.2,29.86,WNW,296,13.0,17.0,88,0.00,,,0.00,221,Wunderground v.1.15,2013-03-11 22:58:00,
2013-03-11 18:00:00,25.3,22.2,29.86,NW,305,13.0,14.0,88,0.00,,,0.00,218,Wunderground v.1.15,2013-03-11 23:00:00,
2013-03-11 18:02:00,25.3,22.2,29.86,WNW,301,12.0,14.0,88,0.00,,,0.00,207,Wunderground v.1.15,2013-03-11 23:02:00,
2013-03-11 18:04:00,25.2,22.1,29.86,WNW,300,11.0,14.0,88,0.00,,,0.00,199,Wunderground v.1.15,2013-03-11 23:04:00,
2013-03-11 18:07:00,25.2,21.9,29.86,WNW,293,11.0,14.0,87,0.00,,,0.00,172,Wunderground v.1.15,2013-03-11 23:07:00,
2013-03-11 18:09:00,25.1,21.8,29.86,WNW,299,12.0,14.0,87,0.00,,,0.00,90,Wunderground v.1.15,2013-03-11 23:09:00,
2013-03-11 18:10:00,24.9,21.6,29.86,WNW,296,10.0,12.0,87,0.00,,,0.00,148,Wunderground v.1.15,2013-03-11 23:10:00,
2013-03-11 18:14:00,24.7,21.4,29.86,WNW,294,11.0,12.0,87,0.00,,,0.00,56,Wunderground v.1.15,2013-03-11 23:14:00,
2013-03-11 18:15:00,24.6,21.3,29.87,WNW,295,10.0,12.0,87,0.00,,,0.00,90,Wunderground v.1.15,2013-03-11 23:15:00,
2013-03-11 18:16:00,24.6,21.3,29.87,WNW,294,10.0,12.0,87,0.00,,,0.00,58,Wunderground v.1.15,2013-03-11 23:16:00,
2013-03-11 18:20:00,24.2,20.9,29.87,WNW,289,10.0,10.0,87,0.00,,,0.00,49,Wunderground v.1.15,2013-03-11 23:20:00,
2013-03-11 18:21:00,24.1,20.8,29.87,WNW,288,9.0,10.0,87,0.00,,,0.00,49,Wunderground v.1.15,2013-03-11 23:21:00,
2013-03-11 18:22:00,24.1,20.8,29.87,WNW,289,8.0,10.0,87,0.00,,,0.00,49,Wunderground v.1.15,2013-03-11 23:22:00,
2013-03-11 18:27:00,23.8,20.8,29.87,WNW,289,8.0,11.0,88,0.00,,,0.00,76,Wunderground v.1.15,2013-03-11 23:27:00,
2013-03-11 18:28:00,23.8,20.8,29.87,WNW,285,9.0,11.0,88,0.00,,,0.00,70,Wunderground v.1.15,2013-03-11 23:28:00,
2013-03-11 18:29:00,23.8,21.0,29.87,WNW,284,8.0,11.0,89,0.00,,,0.00,67,Wunderground v.1.15,2013-03-11 23:29:00,
2013-03-11 18:32:00,23.9,21.1,29.87,WNW,285,9.0,10.0,89,0.00,,,0.00,67,Wunderground v.1.15,2013-03-11 23:32:00,
2013-03-11 18:33:00,24.0,21.2,29.87,WNW,285,7.0,10.0,89,0.00,,,0.00,67,Wunderground v.1.15,2013-03-11 23:33:00,
2013-03-11 18:34:00,24.0,21.2,29.87,WNW,289,9.0,10.0,89,0.00,,,0.00,69,Wunderground v.1.15,2013-03-11 23:34:00,
2013-03-11 18:37:00,24.2,21.4,29.87,West,280,7.0,10.0,89,0.00,,,0.00,67,Wunderground v.1.15,2013-03-11 23:37:00,
2013-03-11 18:38:00,24.3,21.5,29.87,West,278,7.0,10.0,89,0.00,,,0.00,63,Wunderground v.1.15,2013-03-11 23:38:00,
2013-03-11 18:40:00,24.4,21.6,29.87,WNW,282,7.0,8.0,89,0.00,,,0.00,93,Wunderground v.1.15,2013-03-11 23:40:00,
2013-03-11 18:42:00,24.4,21.6,29.87,WNW,289,7.0,8.0,89,0.00,,,0.00,91,Wunderground v.1.15,2013-03-11 23:42:00,
2013-03-11 18:43:00,24.5,21.7,29.87,WNW,289,7.0,8.0,89,0.00,,,0.00,91,Wunderground v.1.15,2013-03-11 23:43:00,
2013-03-11 18:44:00,24.5,21.7,29.87,WNW,290,6.0,8.0,89,0.00,,,0.00,74,Wunderground v.1.15,2013-03-11 23:44:00,
2013-03-11 18:45:00,24.6,21.8,29.87,WNW,289,7.0,8.0,89,0.00,,,0.00,63,Wunderground v.1.15,2013-03-11 23:45:00,
2013-03-11 18:48:00,24.6,21.8,29.87,WNW,289,7.0,8.0,89,0.00,,,0.00,39,Wunderground v.1.15,2013-03-11 23:48:00,
2013-03-11 18:49:00,24.5,21.7,29.87,WNW,293,7.0,8.0,89,0.00,,,0.00,35,Wunderground v.1.15,2013-03-11 23:49:00,
2013-03-11 18:53:00,24.4,21.4,29.87,WNW,286,7.0,9.0,88,0.00,,,0.00,30,Wunderground v.1.15,2013-03-11 23:53:00,
2013-03-11 18:54:00,24.3,21.3,29.88,WNW,286,7.0,9.0,88,0.00,,,0.00,25,Wunderground v.1.15,2013-03-11 23:54:00,
2013-03-11 18:58:00,23.9,20.9,29.88,WNW,288,8.0,9.0,88,0.00,,,0.00,19,Wunderground v.1.15,2013-03-11 23:58:00,
2013-03-11 19:00:00,23.8,20.8,29.88,WNW,285,7.0,9.0,88,0.00,,,0.00,19,Wunderground v.1.15,2013-03-12 00:00:00,
2013-03-11 19:01:00,23.6,20.6,29.88,West,281,8.0,8.0,88,0.00,,,0.00,19,Wunderground v.1.15,2013-03-12 00:01:00,
2013-03-11 19:03:00,23.5,20.5,29.88,West,279,6.0,8.0,88,0.00,,,0.00,18,Wunderground v.1.15,2013-03-12 00:03:00,
2013-03-11 19:05:00,23.3,20.3,29.88,West,280,6.0,8.0,88,0.00,,,0.00,16,Wunderground v.1.15,2013-03-12 00:05:00,
2013-03-11 19:06:00,23.3,20.3,29.88,WNW,283,7.0,8.0,88,0.00,,,0.00,12,Wunderground v.1.15,2013-03-12 00:06:00,
2013-03-11 19:07:00,23.3,20.3,29.88,WNW,283,7.0,8.0,88,0.00,,,0.00,12,Wunderground v.1.15,2013-03-12 00:07:00,
2013-03-11 19:10:00,22.9,19.9,29.88,WNW,288,5.0,7.0,88,0.00,,,0.00,11,Wunderground v.1.15,2013-03-12 00:10:00,
2013-03-11 19:11:00,22.8,19.8,29.88,WNW,288,5.0,7.0,88,0.00,,,0.00,9,Wunderground v.1.15,2013-03-12 00:11:00,
2013-03-11 19:12:00,22.6,19.6,29.88,WNW,288,4.0,7.0,88,0.00,,,0.00,9,Wunderground v.1.15,2013-03-12 00:12:00,
2013-03-11 19:13:00,22.4,19.4,29.88,WNW,288,5.0,7.0,88,0.00,,,0.00,9,Wunderground v.1.15,2013-03-12 00:13:00,
2013-03-11 19:16:00,22.2,19.5,29.88,WNW,286,6.0,7.0,89,0.00,,,0.00,7,Wunderground v.1.15,2013-03-12 00:16:00,
2013-03-11 19:17:00,22.1,19.4,29.88,WNW,284,6.0,7.0,89,0.00,,,0.00,5,Wunderground v.1.15,2013-03-12 00:17:00,
2013-03-11 19:18:00,22.0,19.3,29.88,West,281,6.0,7.0,89,0.00,,,0.00,5,Wunderground v.1.15,2013-03-12 00:18:00,
2013-03-11 19:19:00,21.9,19.2,29.89,WNW,282,6.0,7.0,89,0.00,,,0.00,5,Wunderground v.1.15,2013-03-12 00:19:00,
2013-03-11 19:22:00,21.8,19.1,29.89,West,280,7.0,8.0,89,0.00,,,0.00,0,Wunderground v.1.15,2013-03-12 00:22:00,
2013-03-11 19:24:00,21.8,19.1,29.90,WNW,282,9.0,9.0,89,0.00,,,0.00,0,Wunderground v.1.15,2013-03-12 00:24:00,
2013-03-11 19:29:00,22.0,19.5,29.91,West,278,9.0,11.0,90,0.00,,,0.00,0,Wunderground v.1.15,2013-03-12 00:29:00,
2013-03-11 19:31:00,22.1,19.6,29.91,West,277,9.0,9.0,90,0.00,,,0.00,0,Wunderground v.1.15,2013-03-12 00:31:00,
2013-03-11 19:32:00,22.1,19.6,29.91,West,279,9.0,9.0,90,0.00,,,0.00,0,Wunderground v.1.15,2013-03-12 00:32:00,
2013-03-11 19:34:00,22.3,20.1,29.91,West,278,9.0,10.0,91,0.00,,,0.00,0,Wunderground v.1.15,2013-03-12 00:34:00,
2013-03-11 19:37:00,22.4,20.2,29.91,West,275,10.0,10.0,91,0.00,,,0.00,0,Wunderground v.1.15,2013-03-12 00:37:00,
2013-03-11 19:40:00,22.7,20.5,29.91,West,281,9.0,11.0,91,0.00,,,0.00,0,Wunderground v.1.15,2013-03-12 00:40:00,
2013-03-11 19:42:00,23.0,20.8,29.91,West,273,12.0,12.0,91,0.00,,,0.00,0,Wunderground v.1.15,2013-03-12 00:42:00,
2013-03-11 19:43:00,23.0,20.8,29.91,West,271,11.0,12.0,91,0.00,,,0.00,0,Wunderground v.1.15,2013-03-12 00:43:00,
2013-03-11 19:45:00,23.3,21.1,29.91,West,277,10.0,12.0,91,0.00,,,0.00,0,Wunderground v.1.15,2013-03-12 00:45:00,
2013-03-11 19:47:00,23.5,21.3,29.91,West,281,10.0,12.0,91,0.00,,,0.00,0,Wunderground v.1.15,2013-03-12 00:47:00,
2013-03-11 19:48:00,23.6,21.4,29.91,West,281,10.0,12.0,91,0.00,,,0.00,0,Wunderground v.1.15,2013-03-12 00:48:00,
2013-03-11 19:50:00,23.7,21.5,29.91,West,281,8.0,10.0,91,0.00,,,0.00,0,Wunderground v.1.15,2013-03-12 00:50:00,
2013-03-11 19:51:00,23.8,21.6,29.92,West,281,10.0,10.0,91,0.00,,,0.00,0,Wunderground v.1.15,2013-03-12 00:51:00,
2013-03-11 19:54:00,24.0,21.8,29.92,WNW,284,7.0,10.0,91,0.00,,,0.00,0,Wunderground v.1.15,2013-03-12 00:54:00,
2013-03-11 19:55:00,24.0,21.8,29.92,West,281,8.0,10.0,91,0.00,,,0.00,0,Wunderground v.1.15,2013-03-12 00:55:00,
2013-03-11 19:58:00,24.2,22.0,29.92,West,278,7.0,10.0,91,0.00,,,0.00,0,Wunderground v.1.15,2013-03-12 00:58:00,
2013-03-11 19:59:00,24.3,22.1,29.92,West,281,9.0,10.0,91,0.00,,,0.00,0,Wunderground v.1.15,2013-03-12 00:59:00,
2013-03-11 20:01:00,24.3,22.1,29.92,West,274,12.0,12.0,91,0.00,,,0.00,0,Wunderground v.1.15,2013-03-12 01:01:00,
2013-03-11 20:02:00,24.4,22.2,29.92,West,275,10.0,12.0,91,0.00,,,0.00,0,Wunderground v.1.15,2013-03-12 01:02:00,
2013-03-11 20:03:00,24.5,22.2,29.92,West,277,9.0,12.0,91,0.00,,,0.00,0,Wunderground v.1.15,2013-03-12 01:03:00,
2013-03-11 20:04:00,24.5,22.2,29.92,West,271,11.0,12.0,91,0.00,,,0.00,0,Wunderground v.1.15,2013-03-12 01:04:00,
2013-03-11 20:05:00,24.6,22.3,29.92,West,280,11.0,12.0,91,0.00,,,0.00,0,Wunderground v.1.15,2013-03-12 01:05:00,
2013-03-11 20:07:00,24.7,22.4,29.92,West,264,10.0,12.0,91,0.00,,,0.00,0,Wunderground v.1.15,2013-03-12 01:07:00,
2013-03-11 20:08:00,24.7,22.4,29.92,West,274,10.0,13.0,91,0.00,,,0.00,0,Wunderground v.1.15,2013-03-12 01:08:00,
2013-03-11 20:11:00,24.8,22.3,29.92,West,272,9.0,10.0,90,0.00,,,0.00,0,Wunderground v.1.15,2013-03-12 01:11:00,
2013-03-11 20:13:00,24.9,22.4,29.92,West,273,12.0,12.0,90,0.00,,,0.00,0,Wunderground v.1.15,2013-03-12 01:13:00,
2013-03-11 20:14:00,24.9,22.4,29.92,West,280,12.0,12.0,90,0.00,,,0.00,0,Wunderground v.1.15,2013-03-12 01:14:00,
2013-03-11 20:15:00,25.1,22.6,29.92,West,269,10.0,12.0,90,0.00,,,0.00,0,Wunderground v.1.15,2013-03-12 01:15:00,
2013-03-11 20:16:00,25.1,22.6,29.92,West,272,10.0,12.0,90,0.00,,,0.00,0,Wunderground v.1.15,2013-03-12 01:16:00,
2013-03-11 20:19:00,25.2,22.7,29.92,West,274,8.0,12.0,90,0.00,,,0.00,0,Wunderground v.1.15,2013-03-12 01:19:00,
2013-03-11 20:20:00,25.3,22.8,29.92,West,279,9.0,10.0,90,0.00,,,0.00,0,Wunderground v.1.15,2013-03-12 01:20:00,
2013-03-11 20:22:00,25.3,22.8,29.92,West,280,10.0,11.0,90,0.00,,,0.00,0,Wunderground v.1.15,2013-03-12 01:22:00,
2013-03-11 20:23:00,25.4,22.9,29.91,West,279,10.0,11.0,90,0.00,,,0.00,0,Wunderground v.1.15,2013-03-12 01:23:00,
2013-03-11 20:24:00,25.4,22.9,29.91,West,272,10.0,11.0,90,0.00,,,0.00,0,Wunderground v.1.15,2013-03-12 01:24:00,
2013-03-11 20:27:00,25.5,22.7,29.92,West,279,9.0,11.0,89,0.00,,,0.00,0,Wunderground v.1.15,2013-03-12 01:27:00,
2013-03-11 20:28:00,25.6,22.8,29.91,West,276,10.0,11.0,89,0.00,,,0.00,0,Wunderground v.1.15,2013-03-12 01:28:00,
2013-03-11 20:29:00,25.6,22.8,29.91,WNW,282,8.0,11.0,89,0.00,,,0.00,0,Wunderground v.1.15,2013-03-12 01:29:00,
2013-03-11 20:33:00,25.7,22.9,29.91,West,275,9.0,9.0,89,0.00,,,0.00,0,Wunderground v.1.15,2013-03-12 01:33:00,
2013-03-11 20:35:00,25.7,22.9,29.91,West,275,8.0,9.0,89,0.00,,,0.00,0,Wunderground v.1.15,2013-03-12 01:35:00,
2013-03-11 20:36:00,25.7,22.9,29.91,West,273,7.0,9.0,89,0.00,,,0.00,0,Wunderground v.1.15,2013-03-12 01:36:00,
2013-03-11 20:38:00,25.8,23.0,29.91,West,273,7.0,9.0,89,0.00,,,0.00,0,Wunderground v.1.15,2013-03-12 01:38:00,
2013-03-11 20:41:00,25.8,23.0,29.91,West,269,8.0,8.0,89,0.00,,,0.00,0,Wunderground v.1.15,2013-03-12 01:41:00,
2013-03-11 20:42:00,25.8,23.0,29.91,West,269,7.0,8.0,89,0.00,,,0.00,0,Wunderground v.1.15,2013-03-12 01:42:00,
2013-03-11 20:44:00,25.8,23.0,29.91,West,268,8.0,9.0,89,0.00,,,0.00,0,Wunderground v.1.15,2013-03-12 01:44:00,
2013-03-11 20:47:00,25.8,23.0,29.91,West,265,7.0,9.0,89,0.00,,,0.00,0,Wunderground v.1.15,2013-03-12 01:47:00,
2013-03-11 20:49:00,25.9,22.8,29.91,West,261,7.0,9.0,88,0.00,,,0.00,0,Wunderground v.1.15,2013-03-12 01:49:00,
2013-03-11 20:50:00,25.9,22.8,29.92,West,268,8.0,8.0,88,0.00,,,0.00,0,Wunderground v.1.15,2013-03-12 01:50:00,
2013-03-11 20:52:00,25.9,22.8,29.92,West,268,7.0,8.0,88,0.00,,,0.00,0,Wunderground v.1.15,2013-03-12 01:52:00,
2013-03-11 20:55:00,25.9,22.8,29.92,West,267,6.0,9.0,88,0.00,,,0.00,0,Wunderground v.1.15,2013-03-12 01:55:00,
2013-03-11 20:56:00,25.9,22.8,29.92,West,267,7.0,9.0,88,0.00,,,0.00,0,Wunderground v.1.15,2013-03-12 01:56:00,
2013-03-11 20:57:00,25.9,22.8,29.92,West,268,7.0,9.0,88,0.00,,,0.00,0,Wunderground v.1.15,2013-03-12 01:57:00,
2013-03-11 20:58:00,25.9,23.1,29.92,West,271,7.0,9.0,89,0.00,,,0.00,0,Wunderground v.1.15,2013-03-12 01:58:00,
2013-03-11 21:01:00,26.0,23.2,29.92,West,269,6.0,8.0,89,0.00,,,0.00,0,Wunderground v.1.15,2013-03-12 02:01:00,
2013-03-11 21:02:00,25.9,23.1,29.92,West,271,7.0,8.0,89,0.00,,,0.00,0,Wunderground v.1.15,2013-03-12 02:02:00,
2013-03-11 21:03:00,25.9,23.1,29.92,West,271,7.0,8.0,89,0.00,,,0.00,0,Wunderground v.1.15,2013-03-12 02:03:00,
2013-03-11 21:07:00,26.0,23.2,29.92,West,269,7.0,8.0,89,0.00,,,0.00,0,Wunderground v.1.15,2013-03-12 02:07:00,
2013-03-11 21:09:00,26.0,23.2,29.92,West,271,7.0,9.0,89,0.00,,,0.00,0,Wunderground v.1.15,2013-03-12 02:09:00,
2013-03-11 21:10:00,26.0,23.2,29.92,West,270,8.0,8.0,89,0.00,,,0.00,0,Wunderground v.1.15,2013-03-12 02:10:00,
2013-03-11 21:13:00,26.0,23.2,29.93,West,270,9.0,9.0,89,0.00,,,0.00,0,Wunderground v.1.15,2013-03-12 02:13:00,
2013-03-11 21:16:00,26.0,23.2,29.93,West,272,9.0,10.0,89,0.00,,,0.00,0,Wunderground v.1.15,2013-03-12 02:16:00,
2013-03-11 21:18:00,26.0,23.2,29.93,West,273,8.0,10.0,89,0.00,,,0.00,0,Wunderground v.1.15,2013-03-12 02:18:00,
2013-03-11 21:19:00,26.0,23.2,29.93,West,275,8.0,10.0,89,0.00,,,0.00,0,Wunderground v.1.15,2013-03-12 02:19:00,
2013-03-11 21:21:00,26.0,23.2,29.93,West,273,10.0,10.0,89,0.00,,,0.00,0,Wunderground v.1.15,2013-03-12 02:21:00,
2013-03-11 21:23:00,26.0,23.2,29.93,West,273,8.0,10.0,89,0.00,,,0.00,0,Wunderground v.1.15,2013-03-12 02:23:00,
2013-03-11 21:24:00,26.0,23.2,29.93,West,272,9.0,10.0,89,0.00,,,0.00,0,Wunderground v.1.15,2013-03-12 02:24:00,
2013-03-11 21:29:00,25.9,23.1,29.93,WNW,284,8.0,10.0,89,0.00,,,0.00,0,Wunderground v.1.15,2013-03-12 02:29:00,
2013-03-11 21:32:00,25.7,22.6,29.93,West,279,7.0,8.0,88,0.00,,,0.00,0,Wunderground v.1.15,2013-03-12 02:32:00,
2013-03-11 21:35:00,25.6,22.5,29.93,West,279,6.0,8.0,88,0.00,,,0.00,0,Wunderground v.1.15,2013-03-12 02:35:00,
2013-03-11 21:36:00,25.5,22.4,29.93,West,281,6.0,8.0,88,0.00,,,0.00,0,Wunderground v.1.15,2013-03-12 02:36:00,
2013-03-11 21:37:00,25.5,22.4,29.93,West,281,6.0,8.0,88,0.00,,,0.00,0,Wunderground v.1.15,2013-03-12 02:37:00,
2013-03-11 21:40:00,25.2,21.9,29.93,WNW,284,6.0,7.0,87,0.00,,,0.00,0,Wunderground v.1.15,2013-03-12 02:40:00,
2013-03-11 21:42:00,25.1,21.8,29.93,WNW,289,7.0,7.0,87,0.00,,,0.00,0,Wunderground v.1.15,2013-03-12 02:42:00,
2013-03-11 21:43:00,25.0,21.7,29.93,WNW,289,5.0,7.0,87,0.00,,,0.00,0,Wunderground v.1.15,2013-03-12 02:43:00,
2013-03-11 21:45:00,24.8,21.8,29.93,WNW,288,7.0,8.0,88,0.00,,,0.00,0,Wunderground v.1.15,2013-03-12 02:45:00,
2013-03-11 21:47:00,24.8,21.8,29.93,WNW,283,7.0,8.0,88,0.00,,,0.00,0,Wunderground v.1.15,2013-03-12 02:47:00,
2013-03-11 21:48:00,24.7,21.7,29.93,West,279,7.0,8.0,88,0.00,,,0.00,0,Wunderground v.1.15,2013-03-12 02:48:00,
2013-03-11 21:49:00,24.7,21.7,29.94,West,279,7.0,8.0,88,0.00,,,0.00,0,Wunderground v.1.15,2013-03-12 02:49:00,
2013-03-11 21:51:00,24.7,21.7,29.93,West,281,8.0,8.0,88,0.00,,,0.00,0,Wunderground v.1.15,2013-03-12 02:51:00,
2013-03-11 21:52:00,24.7,21.7,29.94,West,281,6.0,8.0,88,0.00,,,0.00,0,Wunderground v.1.15,2013-03-12 02:52:00,
2013-03-11 21:55:00,24.7,21.9,29.94,WNW,282,7.0,8.0,89,0.00,,,0.00,0,Wunderground v.1.15,2013-03-12 02:55:00,
2013-03-11 21:56:00,24.7,21.9,29.94,WNW,286,7.0,8.0,89,0.00,,,0.00,0,Wunderground v.1.15,2013-03-12 02:56:00,
2013-03-11 21:57:00,24.7,21.9,29.94,West,281,8.0,8.0,89,0.00,,,0.00,0,Wunderground v.1.15,2013-03-12 02:57:00,
2013-03-11 22:02:00,24.9,22.1,29.94,WNW,282,6.0,7.0,89,0.00,,,0.00,0,Wunderground v.1.15,2013-03-12 03:02:00,
2013-03-11 22:03:00,24.9,22.1,29.94,WNW,282,6.0,7.0,89,0.00,,,0.00,0,Wunderground v.1.15,2013-03-12 03:03:00,
2013-03-11 22:07:00,25.1,22.3,29.94,West,278,6.0,7.0,89,0.00,,,0.00,0,Wunderground v.1.15,2013-03-12 03:07:00,
2013-03-11 22:08:00,25.1,22.3,29.94,West,279,6.0,7.0,89,0.00,,,0.00,0,Wunderground v.1.15,2013-03-12 03:08:00,
2013-03-11 22:09:00,25.1,22.3,29.94,West,276,7.0,7.0,89,0.00,,,0.00,0,Wunderground v.1.15,2013-03-12 03:09:00,
2013-03-11 22:10:00,25.1,22.3,29.94,West,274,5.0,7.0,89,0.00,,,0.00,0,Wunderground v.1.15,2013-03-12 03:10:00,
2013-03-11 22:12:00,25.1,22.3,29.94,West,279,7.0,7.0,89,0.00,,,0.00,0,Wunderground v.1.15,2013-03-12 03:12:00,
2013-03-11 22:14:00,25.2,22.4,29.94,West,279,7.0,7.0,89,0.00,,,0.00,0,Wunderground v.1.15,2013-03-12 03:14:00,
2013-03-11 22:16:00,25.2,22.4,29.94,West,279,7.0,7.0,89,0.00,,,0.00,0,Wunderground v.1.15,2013-03-12 03:16:00,
2013-03-11 22:17:00,25.2,22.4,29.94,WNW,282,6.0,7.0,89,0.00,,,0.00,0,Wunderground v.1.15,2013-03-12 03:17:00,
2013-03-11 22:18:00,25.2,22.4,29.94,West,280,6.0,7.0,89,0.00,,,0.00,0,Wunderground v.1.15,2013-03-12 03:18:00,
2013-03-11 22:21:00,25.1,22.3,29.94,WNW,282,7.0,7.0,89,0.00,,,0.00,0,Wunderground v.1.15,2013-03-12 03:21:00,
2013-03-11 22:23:00,25.1,22.3,29.94,West,280,6.0,8.0,89,0.00,,,0.00,0,Wunderground v.1.15,2013-03-12 03:23:00,
2013-03-11 22:25:00,25.1,22.3,29.94,West,281,6.0,8.0,89,0.00,,,0.00,0,Wunderground v.1.15,2013-03-12 03:25:00,
2013-03-11 22:27:00,24.9,22.1,29.94,WNW,282,8.0,8.0,89,0.00,,,0.00,0,Wunderground v.1.15,2013-03-12 03:27:00,
2013-03-11 22:28:00,24.9,21.8,29.94,West,281,8.0,8.0,88,0.00,,,0.00,0,Wunderground v.1.15,2013-03-12 03:28:00,
2013-03-11 22:30:00,24.8,21.8,29.94,West,281,7.0,8.0,88,0.00,,,0.00,0,Wunderground v.1.15,2013-03-12 03:30:00,
2013-03-11 22:33:00,24.6,21.6,29.94,West,281,8.0,8.0,88,0.00,,,0.00,0,Wunderground v.1.15,2013-03-12 03:33:00,
2013-03-11 22:34:00,24.5,21.5,29.95,West,279,7.0,8.0,88,0.00,,,0.00,0,Wunderground v.1.15,2013-03-12 03:34:00,
2013-03-11 22:36:00,24.3,21.3,29.95,West,277,7.0,8.0,88,0.00,,,0.00,0,Wunderground v.1.15,2013-03-12 03:36:00,
2013-03-11 22:38:00,24.2,21.2,29.95,West,277,7.0,8.0,88,0.00,,,0.00,0,Wunderground v.1.15,2013-03-12 03:38:00,
2013-03-11 22:39:00,24.1,21.1,29.95,West,271,8.0,8.0,88,0.00,,,0.00,0,Wunderground v.1.15,2013-03-12 03:39:00,
2013-03-11 22:41:00,24.0,21.0,29.95,West,269,7.0,7.0,88,0.00,,,0.00,0,Wunderground v.1.15,2013-03-12 03:41:00,
2013-03-11 22:43:00,23.9,20.9,29.95,West,270,6.0,7.0,88,0.00,,,0.00,0,Wunderground v.1.15,2013-03-12 03:43:00,
2013-03-11 22:44:00,23.8,20.8,29.95,West,269,6.0,7.0,88,0.00,,,0.00,0,Wunderground v.1.15,2013-03-12 03:44:00,
2013-03-11 22:45:00,23.8,20.8,29.95,West,269,5.0,7.0,88,0.00,,,0.00,0,Wunderground v.1.15,2013-03-12 03:45:00,
2013-03-11 22:46:00,23.6,20.6,29.95,West,269,5.0,7.0,88,0.00,,,0.00,0,Wunderground v.1.15,2013-03-12 03:46:00,
2013-03-11 22:48:00,23.4,20.4,29.95,West,269,4.0,7.0,88,0.00,,,0.00,0,Wunderground v.1.15,2013-03-12 03:48:00,
2013-03-11 22:50:00,23.3,20.3,29.95,West,269,3.0,7.0,88,0.00,,,0.00,0,Wunderground v.1.15,2013-03-12 03:50:00,
2013-03-11 22:52:00,23.1,20.1,29.95,West,269,5.0,5.0,88,0.00,,,0.00,0,Wunderground v.1.15,2013-03-12 03:52:00,
2013-03-11 22:55:00,23.1,20.3,29.95,West,269,5.0,5.0,89,0.00,,,0.00,0,Wunderground v.1.15,2013-03-12 03:55:00,
2013-03-11 22:58:00,23.0,20.2,29.94,West,268,4.0,5.0,89,0.00,,,0.00,0,Wunderground v.1.15,2013-03-12 03:58:00,
2013-03-11 23:00:00,23.0,20.2,29.94,West,267,5.0,5.0,89,0.00,,,0.00,0,Wunderground v.1.15,2013-03-12 04:00:00,
2013-03-11 23:01:00,22.9,20.1,29.94,West,267,5.0,6.0,89,0.00,,,0.00,0,Wunderground v.1.15,2013-03-12 04:01:00,
2013-03-11 23:05:00,22.7,19.9,29.94,West,266,5.0,6.0,89,0.00,,,0.00,0,Wunderground v.1.15,2013-03-12 04:05:00,
2013-03-11 23:06:00,22.7,19.9,29.94,West,266,6.0,6.0,89,0.00,,,0.00,0,Wunderground v.1.15,2013-03-12 04:06:00,
2013-03-11 23:07:00,22.7,19.9,29.94,West,267,5.0,6.0,89,0.00,,,0.00,0,Wunderground v.1.15,2013-03-12 04:07:00,
2013-03-11 23:12:00,22.4,19.6,29.94,West,270,4.0,5.0,89,0.00,,,0.00,0,Wunderground v.1.15,2013-03-12 04:12:00,
2013-03-11 23:13:00,22.3,19.3,29.94,West,270,3.0,5.0,88,0.00,,,0.00,0,Wunderground v.1.15,2013-03-12 04:13:00,
2013-03-11 23:15:00,21.9,18.9,29.94,West,269,3.0,5.0,88,0.00,,,0.00,0,Wunderground v.1.15,2013-03-12 04:15:00,
2013-03-11 23:17:00,21.4,18.4,29.94,West,269,3.0,5.0,88,0.00,,,0.00,0,Wunderground v.1.15,2013-03-12 04:17:00,
2013-03-11 23:18:00,21.2,18.2,29.94,West,269,3.0,5.0,88,0.00,,,0.00,0,Wunderground v.1.15,2013-03-12 04:18:00,
2013-03-11 23:20:00,20.9,17.9,29.94,West,269,3.0,4.0,88,0.00,,,0.00,0,Wunderground v.1.15,2013-03-12 04:20:00,
2013-03-11 23:21:00,20.9,17.9,29.94,West,269,3.0,4.0,88,0.00,,,0.00,0,Wunderground v.1.15,2013-03-12 04:21:00,
2013-03-11 23:23:00,20.5,17.5,29.94,West,269,2.0,4.0,88,0.00,,,0.00,0,Wunderground v.1.15,2013-03-12 04:23:00,
2013-03-11 23:24:00,20.5,17.5,29.94,West,269,2.0,4.0,88,0.00,,,0.00,0,Wunderground v.1.15,2013-03-12 04:24:00,
2013-03-11 23:27:00,19.9,16.9,29.94,West,269,2.0,4.0,88,0.00,,,0.00,0,Wunderground v.1.15,2013-03-12 04:27:00,
2013-03-11 23:28:00,19.8,17.1,29.94,West,269,1.0,4.0,89,0.00,,,0.00,0,Wunderground v.1.15,2013-03-12 04:28:00,
2013-03-11 23:29:00,19.7,17.0,29.94,West,269,3.0,4.0,89,0.00,,,0.00,0,Wunderground v.1.15,2013-03-12 04:29:00,
2013-03-11 23:32:00,19.3,16.6,29.94,West,269,1.0,2.0,89,0.00,,,0.00,0,Wunderground v.1.15,2013-03-12 04:32:00,
2013-03-11 23:34:00,19.2,16.5,29.94,West,269,2.0,2.0,89,0.00,,,0.00,0,Wunderground v.1.15,2013-03-12 04:34:00,
2013-03-11 23:35:00,19.1,16.4,29.94,West,269,2.0,2.0,89,0.00,,,0.00,0,Wunderground v.1.15,2013-03-12 04:35:00,
2013-03-11 23:39:00,18.8,16.4,29.94,West,269,2.0,3.0,90,0.00,,,0.00,0,Wunderground v.1.15,2013-03-12 04:39:00,
2013-03-11 23:40:00,18.8,16.4,29.94,West,269,2.0,2.0,90,0.00,,,0.00,0,Wunderground v.1.15,2013-03-12 04:40:00,
2013-03-11 23:42:00,18.7,16.3,29.94,West,269,2.0,3.0,90,0.00,,,0.00,0,Wunderground v.1.15,2013-03-12 04:42:00,
2013-03-11 23:43:00,18.7,16.3,29.94,West,269,3.0,3.0,90,0.00,,,0.00,0,Wunderground v.1.15,2013-03-12 04:43:00,
2013-03-11 23:44:00,18.7,16.3,29.94,West,269,3.0,4.0,90,0.00,,,0.00,0,Wunderground v.1.15,2013-03-12 04:44:00,
2013-03-11 23:47:00,18.5,16.1,29.94,West,269,2.0,4.0,90,0.00,,,0.00,0,Wunderground v.1.15,2013-03-12 04:47:00,
2013-03-11 23:48:00,18.5,16.1,29.94,West,269,2.0,4.0,90,0.00,,,0.00,0,Wunderground v.1.15,2013-03-12 04:48:00,
2013-03-11 23:49:00,18.3,15.9,29.95,West,269,4.0,4.0,90,0.00,,,0.00,0,Wunderground v.1.15,2013-03-12 04:49:00,
2013-03-11 23:50:00,18.2,15.8,29.94,West,269,2.0,3.0,90,0.00,,,0.00,0,Wunderground v.1.15,2013-03-12 04:50:00,
2013-03-11 23:53:00,18.0,15.6,29.95,West,269,3.0,3.0,90,0.00,,,0.00,0,Wunderground v.1.15,2013-03-12 04:53:00,
2013-03-11 23:54:00,17.9,15.5,29.94,West,269,2.0,3.0,90,0.00,,,0.00,0,Wunderground v.1.15,2013-03-12 04:54:00,
2013-03-11 23:55:00,17.8,15.1,29.95,West,269,2.0,3.0,89,0.00,,,0.00,0,Wunderground v.1.15,2013-03-12 04:55:00,
2013-03-11 23:57:00,17.5,14.8,29.95,West,269,2.0,3.0,89,0.00,,,0.00,0,Wunderground v.1.15,2013-03-12 04:57:00,
2013-03-11 23:58:00,17.4,15.0,29.95,West,269,2.0,3.0,90,0.00,,,0.00,0,Wunderground v.1.15,2013-03-12 04:58:00,